Wetterdaten: Montag, 31.01.2022
Datum Zeit Temp. Aussen Temp. o. S. Temp +5cm Feuchte Auss Luftdruck Regen Sonnenschein Regendauer Solar Windben Empfang
31.01.2022 00:00 4,8 C 3,9 C 1,1 C 82 % 1020,5 hPa 0,0 l/m 0 min 0 min 0 W/m 12,9 km/h (3 Bft) 100,00 %
31.01.2022 00:02 4,7 C 3,9 C 1,1 C 82 % 1020,4 hPa 0,0 l/m 0 min 0 min 0 W/m 25,7 km/h (4 Bft) 100,00 %
31.01.2022 00:04 4,8 C 3,9 C 1,1 C 81 % 1020,3 hPa 0,0 l/m 0 min 0 min 0 W/m 16,1 km/h (3 Bft) 100,00 %
31.01.2022 00:08 4,8 C 4,4 C 1,1 C 81 % 1020,1 hPa 0,0 l/m 0 min 0 min 0 W/m 25,7 km/h (4 Bft) 98,89 %
31.01.2022 00:10 4,8 C 4,4 C 1,1 C 81 % 1019,9 hPa 0,0 l/m 0 min 0 min 0 W/m 16,1 km/h (3 Bft) 100,00 %
31.01.2022 00:12 4,8 C 4,4 C 1,1 C 81 % 1019,9 hPa 0,0 l/m 0 min 0 min 0 W/m 19,3 km/h (3 Bft) 100,00 %
31.01.2022 00:14 4,8 C 4,4 C 1,1 C 81 % 1019,9 hPa 0,0 l/m 0 min 0 min 0 W/m 16,1 km/h (3 Bft) 100,00 %
31.01.2022 00:16 4,8 C 4,4 C 1,1 C 81 % 1019,8 hPa 0,0 l/m 0 min 0 min 0 W/m 19,3 km/h (3 Bft) 100,00 %
31.01.2022 00:18 4,8 C 4,4 C 1,1 C 81 % 1019,6 hPa 0,0 l/m 0 min 0 min 0 W/m 22,5 km/h (4 Bft) 97,87 %
31.01.2022 00:20 4,8 C 4,4 C 1,1 C 81 % 1019,5 hPa 0,0 l/m 0 min 0 min 0 W/m 25,7 km/h (4 Bft) 97,87 %
31.01.2022 00:22 4,8 C 4,4 C 1,1 C 80 % 1019,2 hPa 0,0 l/m 0 min 0 min 0 W/m 19,3 km/h (3 Bft) 95,65 %
31.01.2022 00:24 4,8 C 4,4 C 1,1 C 80 % 1019,1 hPa 0,0 l/m 0 min 0 min 0 W/m 19,3 km/h (3 Bft) 97,87 %
31.01.2022 00:26 4,8 C 4,4 C 1,1 C 80 % 1019,1 hPa 0,0 l/m 0 min 0 min 0 W/m 25,7 km/h (4 Bft) 93,62 %
31.01.2022 00:28 4,9 C 4,4 C 1,1 C 80 % 1019,0 hPa 0,0 l/m 0 min 0 min 0 W/m 16,1 km/h (3 Bft) 95,74 %
31.01.2022 00:30 4,9 C 4,4 C 1,1 C 80 % 1018,7 hPa 0,0 l/m 0 min 0 min 0 W/m 16,1 km/h (3 Bft) 95,74 %
31.01.2022 00:32 4,8 C 4,4 C 1,1 C 80 % 1018,5 hPa 0,0 l/m 0 min 0 min 0 W/m 19,3 km/h (3 Bft) 95,65 %
31.01.2022 00:34 4,9 C 4,4 C 1,1 C 80 % 1018,4 hPa 0,0 l/m 0 min 0 min 0 W/m 22,5 km/h (4 Bft) 95,74 %
31.01.2022 00:36 4,8 C 4,4 C 1,1 C 80 % 1018,2 hPa 0,0 l/m 0 min 0 min 0 W/m 19,3 km/h (3 Bft) 95,74 %
31.01.2022 00:38 4,8 C 3,9 C 1,1 C 80 % 1018,1 hPa 0,0 l/m 0 min 0 min 0 W/m 25,7 km/h (4 Bft) 91,49 %
31.01.2022 00:40 4,8 C 3,9 C 1,1 C 80 % 1018,1 hPa 0,0 l/m 0 min 0 min 0 W/m 19,3 km/h (3 Bft) 95,74 %
31.01.2022 00:42 4,8 C 3,9 C 1,1 C 80 % 1018,0 hPa 0,0 l/m 0 min 0 min 0 W/m 25,7 km/h (4 Bft) 91,67 %
31.01.2022 00:44 4,8 C 3,9 C 1,1 C 80 % 1017,9 hPa 0,0 l/m 0 min 0 min 0 W/m 22,5 km/h (4 Bft) 95,65 %
31.01.2022 00:46 4,8 C 3,9 C 1,1 C 80 % 1017,8 hPa 0,0 l/m 0 min 0 min 0 W/m 16,1 km/h (3 Bft) 97,87 %
31.01.2022 00:48 4,8 C 3,9 C 1,1 C 80 % 1017,7 hPa 0,0 l/m 0 min 0 min 0 W/m 25,7 km/h (4 Bft) 93,62 %
31.01.2022 00:50 4,8 C 3,9 C 1,1 C 81 % 1017,6 hPa 0,0 l/m 0 min 0 min 0 W/m 25,7 km/h (4 Bft) 93,62 %
31.01.2022 00:52 4,8 C 3,9 C 1,1 C 81 % 1017,5 hPa 0,0 l/m 0 min 0 min 0 W/m 19,3 km/h (3 Bft) 93,62 %
31.01.2022 00:54 4,8 C 4,4 C 1,1 C 81 % 1017,4 hPa 0,0 l/m 0 min 0 min 0 W/m 32,2 km/h (5 Bft) 93,62 %
31.01.2022 00:56 4,8 C 4,4 C 1,1 C 81 % 1017,4 hPa 0,0 l/m 0 min 0 min 0 W/m 25,7 km/h (4 Bft) 91,30 %
31.01.2022 00:58 4,8 C 3,9 C 1,1 C 81 % 1017,2 hPa 0,0 l/m 0 min 0 min 0 W/m 25,7 km/h (4 Bft) 91,49 %
31.01.2022 01:00 4,8 C 3,9 C 0,6 C 81 % 1017,1 hPa 0,0 l/m 0 min 0 min 0 W/m 19,3 km/h (3 Bft) 91,49 %
31.01.2022 01:02 4,7 C 3,9 C 0,6 C 81 % 1016,9 hPa 0,0 l/m 0 min 0 min 0 W/m 22,5 km/h (4 Bft) 97,92 %
31.01.2022 01:04 4,7 C 3,9 C 0,6 C 81 % 1016,8 hPa 0,0 l/m 0 min 0 min 0 W/m 22,5 km/h (4 Bft) 95,74 %
31.01.2022 01:06 4,7 C 3,9 C 0,6 C 81 % 1016,6 hPa 0,0 l/m 0 min 0 min 0 W/m 22,5 km/h (4 Bft) 97,83 %
31.01.2022 01:08 4,7 C 3,9 C 0,6 C 81 % 1016,4 hPa 0,0 l/m 0 min 0 min 0 W/m 19,3 km/h (3 Bft) 97,87 %
31.01.2022 01:10 4,7 C 3,9 C 0,6 C 81 % 1016,5 hPa 0,0 l/m 0 min 0 min 0 W/m 19,3 km/h (3 Bft) 97,87 %
31.01.2022 01:12 4,7 C 3,9 C 0,6 C 82 % 1016,7 hPa 0,0 l/m 0 min 0 min 0 W/m 22,5 km/h (4 Bft) 97,87 %
31.01.2022 01:14 4,7 C 3,9 C 0,6 C 81 % 1016,8 hPa 0,0 l/m 0 min 0 min 0 W/m 22,5 km/h (4 Bft) 97,87 %
31.01.2022 01:16 4,6 C 3,9 C 0,6 C 82 % 1016,8 hPa 0,0 l/m 0 min 0 min 0 W/m 22,5 km/h (4 Bft) 93,62 %
31.01.2022 01:18 4,6 C 3,9 C 0,6 C 82 % 1016,9 hPa 0,0 l/m 0 min 0 min 0 W/m 12,9 km/h (3 Bft) 97,83 %
31.01.2022 01:20 4,6 C 3,9 C 0,6 C 82 % 1017,0 hPa 0,0 l/m 0 min 0 min 0 W/m 19,3 km/h (3 Bft) 97,87 %
31.01.2022 01:22 4,6 C 3,9 C 0,6 C 82 % 1016,9 hPa 0,0 l/m 0 min 0 min 0 W/m 16,1 km/h (3 Bft) 97,87 %
31.01.2022 01:24 4,6 C 3,9 C 0,6 C 82 % 1016,7 hPa 0,0 l/m 0 min 0 min 0 W/m 25,7 km/h (4 Bft) 95,92 %
31.01.2022 01:26 4,6 C 3,9 C 0,6 C 82 % 1016,7 hPa 0,0 l/m 0 min 0 min 0 W/m 19,3 km/h (3 Bft) 97,87 %
31.01.2022 01:28 4,6 C 3,9 C 0,6 C 82 % 1016,6 hPa 0,0 l/m 0 min 0 min 0 W/m 19,3 km/h (3 Bft) 95,74 %
31.01.2022 01:30 4,6 C 3,9 C 0,6 C 83 % 1016,5 hPa 0,0 l/m 0 min 0 min 0 W/m 19,3 km/h (3 Bft) 97,87 %
31.01.2022 01:32 4,6 C 3,9 C 0,6 C 83 % 1016,3 hPa 0,0 l/m 0 min 0 min 0 W/m 22,5 km/h (4 Bft) 95,65 %
31.01.2022 01:34 4,7 C 3,9 C 0,6 C 83 % 1016,2 hPa 0,0 l/m 0 min 0 min 0 W/m 29,0 km/h (5 Bft) 97,87 %
31.01.2022 01:36 4,7 C 3,9 C 0,6 C 83 % 1016,0 hPa 0,0 l/m 0 min 0 min 0 W/m 12,9 km/h (3 Bft) 100,00 %
31.01.2022 01:38 4,7 C 3,9 C 0,6 C 83 % 1015,9 hPa 0,0 l/m 0 min 0 min 0 W/m 22,5 km/h (4 Bft) 97,87 %
31.01.2022 01:40 4,7 C 3,9 C 0,6 C 83 % 1016,0 hPa 0,0 l/m 0 min 0 min 0 W/m 29,0 km/h (5 Bft) 100,00 %
31.01.2022 01:42 4,7 C 3,9 C 1,1 C 83 % 1016,0 hPa 0,0 l/m 0 min 0 min 0 W/m 19,3 km/h (3 Bft) 100,00 %
31.01.2022 01:44 4,7 C 3,9 C 1,1 C 83 % 1015,9 hPa 0,0 l/m 0 min 0 min 0 W/m 29,0 km/h (5 Bft) 100,00 %
31.01.2022 01:46 4,7 C 3,9 C 1,1 C 83 % 1015,8 hPa 0,0 l/m 0 min 0 min 0 W/m 16,1 km/h (3 Bft) 100,00 %
31.01.2022 01:48 4,7 C 3,9 C 1,1 C 83 % 1015,8 hPa 0,0 l/m 0 min 0 min 0 W/m 25,7 km/h (4 Bft) 97,87 %
31.01.2022 01:50 4,7 C 3,9 C 1,1 C 83 % 1015,7 hPa 0,0 l/m 0 min 0 min 0 W/m 29,0 km/h (5 Bft) 100,00 %
31.01.2022 01:52 4,8 C 4,4 C 1,1 C 83 % 1015,6 hPa 0,0 l/m 0 min 0 min 0 W/m 32,2 km/h (5 Bft) 97,87 %
31.01.2022 01:54 4,8 C 4,4 C 1,1 C 83 % 1015,5 hPa 0,0 l/m 0 min 0 min 0 W/m 19,3 km/h (3 Bft) 100,00 %
31.01.2022 01:56 4,8 C 3,9 C 1,1 C 83 % 1015,4 hPa 0,0 l/m 0 min 0 min 0 W/m 19,3 km/h (3 Bft) 100,00 %
31.01.2022 01:58 4,8 C 4,4 C 1,1 C 83 % 1015,2 hPa 0,0 l/m 0 min 0 min 0 W/m 22,5 km/h (4 Bft) 100,00 %
31.01.2022 02:00 4,8 C 4,4 C 1,1 C 83 % 1015,2 hPa 0,0 l/m 0 min 0 min 0 W/m 22,5 km/h (4 Bft) 100,00 %
31.01.2022 02:02 4,8 C 4,4 C 1,1 C 83 % 1015,0 hPa 0,0 l/m 0 min 0 min 0 W/m 19,3 km/h (3 Bft) 97,87 %
31.01.2022 02:04 4,8 C 4,4 C 1,1 C 83 % 1014,9 hPa 0,0 l/m 0 min 0 min 0 W/m 16,1 km/h (3 Bft) 100,00 %
31.01.2022 02:06 4,8 C 4,4 C 1,1 C 83 % 1014,8 hPa 0,0 l/m 0 min 0 min 0 W/m 22,5 km/h (4 Bft) 100,00 %
31.01.2022 02:08 4,8 C 4,4 C 1,1 C 83 % 1014,7 hPa 0,0 l/m 0 min 0 min 0 W/m 22,5 km/h (4 Bft) 100,00 %
31.01.2022 02:10 4,8 C 4,4 C 1,1 C 83 % 1014,6 hPa 0,0 l/m 0 min 0 min 0 W/m 32,2 km/h (5 Bft) 97,87 %
31.01.2022 02:12 4,8 C 4,4 C 1,1 C 83 % 1014,5 hPa 0,0 l/m 0 min 0 min 0 W/m 22,5 km/h (4 Bft) 97,87 %
31.01.2022 02:14 4,8 C 4,4 C 1,1 C 83 % 1014,3 hPa 0,0 l/m 0 min 0 min 0 W/m 16,1 km/h (3 Bft) 100,00 %
31.01.2022 02:16 4,8 C 4,4 C 1,1 C 83 % 1014,3 hPa 0,0 l/m 0 min 0 min 0 W/m 25,7 km/h (4 Bft) 97,87 %
31.01.2022 02:18 4,8 C 4,4 C 1,1 C 83 % 1014,3 hPa 0,0 l/m 0 min 0 min 0 W/m 25,7 km/h (4 Bft) 100,00 %
31.01.2022 02:20 4,8 C 4,4 C 1,1 C 83 % 1014,2 hPa 0,0 l/m 0 min 0 min 0 W/m 25,7 km/h (4 Bft) 100,00 %
31.01.2022 02:22 4,8 C 4,4 C 1,1 C 83 % 1014,0 hPa 0,0 l/m 0 min 0 min 0 W/m 22,5 km/h (4 Bft) 100,00 %
31.01.2022 02:24 4,8 C 4,4 C 1,1 C 83 % 1013,9 hPa 0,0 l/m 0 min 0 min 0 W/m 25,7 km/h (4 Bft) 97,87 %
31.01.2022 02:26 4,8 C 4,4 C 1,1 C 83 % 1013,8 hPa 0,0 l/m 0 min 0 min 0 W/m 19,3 km/h (3 Bft) 97,87 %
31.01.2022 02:28 4,8 C 4,4 C 1,1 C 83 % 1013,6 hPa 0,0 l/m 0 min 0 min 0 W/m 25,7 km/h (4 Bft) 97,87 %
31.01.2022 02:30 4,9 C 4,4 C 1,1 C 83 % 1013,6 hPa 0,0 l/m 0 min 0 min 0 W/m 22,5 km/h (4 Bft) 97,87 %
31.01.2022 02:32 4,9 C 4,4 C 1,1 C 83 % 1013,6 hPa 0,0 l/m 0 min 0 min 0 W/m 29,0 km/h (5 Bft) 97,83 %
31.01.2022 02:34 4,9 C 4,4 C 1,1 C 83 % 1013,5 hPa 0,0 l/m 0 min 0 min 0 W/m 29,0 km/h (5 Bft) 97,87 %
31.01.2022 02:36 4,9 C 4,4 C 1,1 C 83 % 1013,3 hPa 0,0 l/m 0 min 0 min 0 W/m 35,4 km/h (5 Bft) 95,74 %
31.01.2022 02:38 4,9 C 4,4 C 1,1 C 83 % 1013,2 hPa 0,0 l/m 0 min 0 min 0 W/m 19,3 km/h (3 Bft) 97,87 %
31.01.2022 02:40 4,9 C 4,4 C 1,1 C 83 % 1013,2 hPa 0,0 l/m 0 min 0 min 0 W/m 32,2 km/h (5 Bft) 97,87 %
31.01.2022 02:42 4,9 C 4,4 C 1,1 C 83 % 1013,1 hPa 0,0 l/m 0 min 0 min 0 W/m 16,1 km/h (3 Bft) 97,62 %
31.01.2022 02:44 4,9 C 4,4 C 1,1 C 83 % 1012,9 hPa 0,0 l/m 0 min 0 min 0 W/m 19,3 km/h (3 Bft) 97,83 %
31.01.2022 02:46 4,9 C 4,4 C 1,1 C 83 % 1012,8 hPa 0,0 l/m 0 min 0 min 0 W/m 29,0 km/h (5 Bft) 95,74 %
31.01.2022 02:48 4,9 C 4,4 C 1,1 C 83 % 1012,8 hPa 0,0 l/m 0 min 0 min 0 W/m 29,0 km/h (5 Bft) 97,87 %
31.01.2022 02:50 5,0 C 4,4 C 1,1 C 83 % 1012,6 hPa 0,0 l/m 0 min 0 min 0 W/m 32,2 km/h (5 Bft) 97,87 %
31.01.2022 02:52 5,0 C 4,4 C 1,1 C 83 % 1012,7 hPa 0,0 l/m 0 min 0 min 0 W/m 38,6 km/h (5 Bft) 97,87 %
31.01.2022 02:54 5,0 C 4,4 C 1,1 C 84 % 1012,5 hPa 0,0 l/m 0 min 0 min 0 W/m 22,5 km/h (4 Bft) 95,74 %
31.01.2022 02:56 5,1 C 4,4 C 1,1 C 84 % 1012,5 hPa 0,0 l/m 0 min 0 min 0 W/m 25,7 km/h (4 Bft) 95,65 %
31.01.2022 02:58 5,1 C 4,4 C 1,1 C 84 % 1012,4 hPa 0,0 l/m 0 min 2 min 0 W/m 41,8 km/h (6 Bft) 97,87 %
31.01.2022 03:00 5,1 C 4,4 C 0,6 C 84 % 1012,2 hPa 0,0 l/m 0 min 2 min 0 W/m 35,4 km/h (5 Bft) 97,87 %
31.01.2022 03:02 5,0 C 4,4 C 0,6 C 84 % 1012,2 hPa 0,0 l/m 0 min 2 min 0 W/m 29,0 km/h (5 Bft) 97,87 %
31.01.2022 03:04 5,0 C 4,4 C 0,6 C 85 % 1012,2 hPa 0,0 l/m 0 min 2 min 0 W/m 32,2 km/h (5 Bft) 97,87 %
31.01.2022 03:06 4,9 C 4,4 C 0,6 C 85 % 1012,0 hPa 0,0 l/m 0 min 2 min 0 W/m 35,4 km/h (5 Bft) 91,30 %
31.01.2022 03:08 4,9 C 4,4 C 0,6 C 85 % 1012,1 hPa 0,0 l/m 0 min 2 min 0 W/m 25,7 km/h (4 Bft) 97,87 %
31.01.2022 03:10 4,9 C 4,4 C 0,6 C 85 % 1011,8 hPa 0,0 l/m 0 min 2 min 0 W/m 25,7 km/h (4 Bft) 97,87 %
31.01.2022 03:12 4,9 C 3,9 C 0,6 C 86 % 1011,8 hPa 0,0 l/m 0 min 2 min 0 W/m 22,5 km/h (4 Bft) 97,87 %
31.01.2022 03:14 4,9 C 3,9 C 0,6 C 86 % 1011,9 hPa 0,0 l/m 0 min 2 min 0 W/m 35,4 km/h (5 Bft) 97,87 %
31.01.2022 03:16 4,8 C 3,9 C 0,6 C 86 % 1011,8 hPa 0,0 l/m 0 min 2 min 0 W/m 35,4 km/h (5 Bft) 97,87 %
31.01.2022 03:18 4,8 C 3,9 C 0,0 C 87 % 1011,8 hPa 0,0 l/m 0 min 2 min 0 W/m 32,2 km/h (5 Bft) 97,83 %
31.01.2022 03:20 4,8 C 3,9 C 0,0 C 87 % 1011,6 hPa 0,2 l/m 0 min 2 min 0 W/m 25,7 km/h (4 Bft) 97,87 %
31.01.2022 03:22 4,8 C 3,3 C 0,0 C 88 % 1011,5 hPa 0,0 l/m 0 min 2 min 0 W/m 32,2 km/h (5 Bft) 97,87 %
31.01.2022 03:24 4,7 C 3,3 C 0,0 C 88 % 1011,4 hPa 0,0 l/m 0 min 2 min 0 W/m 16,1 km/h (3 Bft) 95,74 %
31.01.2022 03:26 4,7 C 3,3 C 0,0 C 89 % 1011,4 hPa 0,0 l/m 0 min 2 min 0 W/m 22,5 km/h (4 Bft) 97,87 %
31.01.2022 03:28 4,6 C 3,3 C 0,0 C 89 % 1011,2 hPa 0,0 l/m 0 min 2 min 0 W/m 41,8 km/h (6 Bft) 97,87 %
31.01.2022 03:30 4,6 C 3,3 C 0,0 C 89 % 1011,3 hPa 0,0 l/m 0 min 2 min 0 W/m 29,0 km/h (5 Bft) 97,83 %
31.01.2022 03:32 4,6 C 3,3 C 0,0 C 90 % 1011,2 hPa 0,0 l/m 0 min 0 min 0 W/m 25,7 km/h (4 Bft) 97,87 %
31.01.2022 03:34 4,5 C 3,3 C 0,0 C 90 % 1011,1 hPa 0,0 l/m 0 min 2 min 0 W/m 29,0 km/h (5 Bft) 97,87 %
31.01.2022 03:36 4,5 C 3,3 C 0,0 C 90 % 1011,1 hPa 0,0 l/m 0 min 2 min 0 W/m 25,7 km/h (4 Bft) 97,87 %
31.01.2022 03:38 4,5 C 3,3 C 0,0 C 90 % 1011,1 hPa 0,0 l/m 0 min 2 min 0 W/m 25,7 km/h (4 Bft) 100,00 %
31.01.2022 03:40 4,4 C 3,3 C 0,0 C 91 % 1011,0 hPa 0,0 l/m 0 min 2 min 0 W/m 19,3 km/h (3 Bft) 100,00 %
31.01.2022 03:42 4,4 C 3,3 C 0,0 C 91 % 1010,9 hPa 0,2 l/m 0 min 2 min 0 W/m 41,8 km/h (6 Bft) 97,87 %
31.01.2022 03:44 4,4 C 3,3 C 0,0 C 91 % 1010,9 hPa 0,0 l/m 0 min 2 min 0 W/m 19,3 km/h (3 Bft) 97,87 %
31.01.2022 03:46 4,4 C 3,3 C 0,0 C 91 % 1010,8 hPa 0,2 l/m 0 min 2 min 0 W/m 19,3 km/h (3 Bft) 97,87 %
31.01.2022 03:48 4,3 C 3,3 C 0,0 C 91 % 1010,8 hPa 0,0 l/m 0 min 2 min 0 W/m 41,8 km/h (6 Bft) 97,87 %
31.01.2022 03:50 4,3 C 2,8 C 0,0 C 92 % 1010,7 hPa 0,2 l/m 0 min 2 min 0 W/m 38,6 km/h (5 Bft) 100,00 %
31.01.2022 03:52 4,3 C 2,8 C 0,0 C 92 % 1010,6 hPa 0,0 l/m 0 min 2 min 0 W/m 25,7 km/h (4 Bft) 95,74 %
31.01.2022 03:54 4,3 C 2,8 C 0,0 C 92 % 1010,6 hPa 0,2 l/m 0 min 2 min 0 W/m 32,2 km/h (5 Bft) 95,65 %
31.01.2022 03:56 4,2 C 2,8 C 0,0 C 92 % 1010,5 hPa 0,0 l/m 0 min 2 min 0 W/m 25,7 km/h (4 Bft) 95,74 %
31.01.2022 03:58 4,1 C 2,8 C 0,0 C 92 % 1010,4 hPa 0,2 l/m 0 min 2 min 0 W/m 29,0 km/h (5 Bft) 97,87 %
31.01.2022 04:00 4,1 C 2,8 C 0,0 C 92 % 1010,4 hPa 0,0 l/m 0 min 2 min 0 W/m 32,2 km/h (5 Bft) 95,74 %
31.01.2022 04:02 4,1 C 2,8 C 0,0 C 93 % 1010,2 hPa 0,0 l/m 0 min 2 min 0 W/m 22,5 km/h (4 Bft) 100,00 %
31.01.2022 04:07 4,1 C 2,8 C 0,0 C 93 % 1010,2 hPa 0,2 l/m 0 min 5 min 0 W/m 35,4 km/h (5 Bft) 95,92 %
31.01.2022 04:08 4,0 C 2,8 C 0,0 C 93 % 1010,2 hPa 0,0 l/m 0 min 1 min 0 W/m 19,3 km/h (3 Bft) 100,00 %
31.01.2022 04:10 4,0 C 2,8 C 0,0 C 93 % 1010,3 hPa 0,0 l/m 0 min 2 min 0 W/m 19,3 km/h (3 Bft) 95,74 %
31.01.2022 04:12 4,0 C 2,8 C 0,0 C 93 % 1010,2 hPa 0,0 l/m 0 min 2 min 0 W/m 29,0 km/h (5 Bft) 95,74 %
31.01.2022 04:14 3,9 C 2,8 C 0,0 C 93 % 1010,2 hPa 0,0 l/m 0 min 2 min 0 W/m 19,3 km/h (3 Bft) 97,87 %
31.01.2022 04:16 3,9 C 2,8 C 0,0 C 93 % 1010,0 hPa 0,0 l/m 0 min 2 min 0 W/m 16,1 km/h (3 Bft) 97,83 %
31.01.2022 04:18 3,9 C 2,8 C 0,0 C 93 % 1010,1 hPa 0,0 l/m 0 min 2 min 0 W/m 19,3 km/h (3 Bft) 93,62 %
31.01.2022 04:20 3,9 C 2,8 C 0,0 C 94 % 1009,9 hPa 0,0 l/m 0 min 2 min 0 W/m 22,5 km/h (4 Bft) 97,87 %
31.01.2022 04:22 3,9 C 2,8 C 0,0 C 94 % 1009,8 hPa 0,0 l/m 0 min 2 min 0 W/m 22,5 km/h (4 Bft) 93,62 %
31.01.2022 04:24 4,0 C 2,8 C 0,0 C 94 % 1009,8 hPa 0,0 l/m 0 min 2 min 0 W/m 19,3 km/h (3 Bft) 95,74 %
31.01.2022 04:26 4,0 C 2,8 C 0,0 C 94 % 1009,9 hPa 0,2 l/m 0 min 2 min 0 W/m 16,1 km/h (3 Bft) 93,62 %
31.01.2022 04:28 4,0 C 3,3 C 0,0 C 94 % 1009,8 hPa 0,0 l/m 0 min 2 min 0 W/m 29,0 km/h (5 Bft) 95,74 %
31.01.2022 04:30 4,0 C 3,3 C 0,0 C 94 % 1009,7 hPa 0,0 l/m 0 min 2 min 0 W/m 16,1 km/h (3 Bft) 95,65 %
31.01.2022 04:32 4,0 C 2,8 C 0,0 C 94 % 1009,8 hPa 0,2 l/m 0 min 2 min 0 W/m 22,5 km/h (4 Bft) 95,74 %
31.01.2022 04:34 4,1 C 3,3 C 0,0 C 94 % 1009,8 hPa 0,0 l/m 0 min 2 min 0 W/m 35,4 km/h (5 Bft) 95,74 %
31.01.2022 04:36 4,1 C 3,3 C 0,0 C 95 % 1009,7 hPa 0,0 l/m 0 min 2 min 0 W/m 16,1 km/h (3 Bft) 97,87 %
31.01.2022 04:38 4,1 C 3,3 C 0,0 C 95 % 1009,5 hPa 0,2 l/m 0 min 2 min 0 W/m 16,1 km/h (3 Bft) 95,74 %
31.01.2022 04:40 4,1 C 3,3 C 0,0 C 95 % 1009,4 hPa 0,0 l/m 0 min 2 min 0 W/m 22,5 km/h (4 Bft) 95,74 %
31.01.2022 04:42 4,1 C 3,3 C 0,0 C 95 % 1009,4 hPa 0,0 l/m 0 min 0 min 0 W/m 16,1 km/h (3 Bft) 97,87 %
31.01.2022 04:44 4,1 C 3,3 C 0,0 C 95 % 1009,3 hPa 0,0 l/m 0 min 0 min 0 W/m 22,5 km/h (4 Bft) 95,74 %
31.01.2022 04:46 4,1 C 3,3 C 0,0 C 95 % 1009,4 hPa 0,0 l/m 0 min 2 min 0 W/m 19,3 km/h (3 Bft) 97,87 %
31.01.2022 04:48 4,2 C 3,3 C 0,0 C 95 % 1009,4 hPa 0,0 l/m 0 min 0 min 0 W/m 22,5 km/h (4 Bft) 97,87 %
31.01.2022 04:50 4,2 C 3,3 C 0,6 C 95 % 1009,4 hPa 0,0 l/m 0 min 2 min 0 W/m 12,9 km/h (3 Bft) 97,87 %
31.01.2022 04:52 4,2 C 3,3 C 0,6 C 95 % 1009,1 hPa 0,0 l/m 0 min 2 min 0 W/m 16,1 km/h (3 Bft) 100,00 %
31.01.2022 04:54 4,2 C 3,3 C 0,6 C 95 % 1009,2 hPa 0,0 l/m 0 min 2 min 0 W/m 19,3 km/h (3 Bft) 100,00 %
31.01.2022 04:56 4,3 C 3,3 C 0,6 C 95 % 1009,1 hPa 0,0 l/m 0 min 2 min 0 W/m 16,1 km/h (3 Bft) 100,00 %
31.01.2022 04:58 4,3 C 3,3 C 0,6 C 96 % 1008,9 hPa 0,0 l/m 0 min 2 min 0 W/m 19,3 km/h (3 Bft) 100,00 %
31.01.2022 05:00 4,3 C 3,3 C 0,6 C 96 % 1009,0 hPa 0,0 l/m 0 min 2 min 0 W/m 19,3 km/h (3 Bft) 100,00 %
31.01.2022 05:02 4,4 C 3,3 C 0,6 C 96 % 1009,0 hPa 0,0 l/m 0 min 2 min 0 W/m 16,1 km/h (3 Bft) 100,00 %
31.01.2022 05:04 4,4 C 3,3 C 0,6 C 96 % 1008,9 hPa 0,2 l/m 0 min 2 min 0 W/m 29,0 km/h (5 Bft) 100,00 %
31.01.2022 05:06 4,4 C 3,9 C 0,6 C 96 % 1008,9 hPa 0,0 l/m 0 min 2 min 0 W/m 41,8 km/h (6 Bft) 100,00 %
31.01.2022 05:08 4,5 C 3,9 C 0,6 C 96 % 1009,0 hPa 0,0 l/m 0 min 2 min 0 W/m 22,5 km/h (4 Bft) 54,55 %
31.01.2022 05:10 4,5 C 3,9 C 0,6 C 96 % 1008,9 hPa 0,0 l/m 0 min 0 min 0 W/m 19,3 km/h (3 Bft) 100,00 %
31.01.2022 05:12 4,6 C 3,9 C 0,6 C 96 % 1009,0 hPa 0,0 l/m 0 min 0 min 0 W/m 22,5 km/h (4 Bft) 95,74 %
31.01.2022 05:14 4,6 C 3,9 C 0,6 C 96 % 1008,9 hPa 0,0 l/m 0 min 0 min 0 W/m 29,0 km/h (5 Bft) 100,00 %
31.01.2022 05:16 4,7 C 3,9 C 0,6 C 96 % 1009,0 hPa 0,0 l/m 0 min 0 min 0 W/m 16,1 km/h (3 Bft) 100,00 %
31.01.2022 05:18 4,7 C 3,9 C 0,6 C 96 % 1008,8 hPa 0,0 l/m 0 min 0 min 0 W/m 22,5 km/h (4 Bft) 100,00 %
31.01.2022 05:20 4,7 C 3,9 C 0,6 C 96 % 1008,8 hPa 0,0 l/m 0 min 0 min 0 W/m 19,3 km/h (3 Bft) 100,00 %
31.01.2022 05:22 4,7 C 3,9 C 0,6 C 96 % 1008,7 hPa 0,0 l/m 0 min 0 min 0 W/m 19,3 km/h (3 Bft) 95,74 %
31.01.2022 05:24 4,7 C 3,9 C 0,6 C 96 % 1008,7 hPa 0,0 l/m 0 min 0 min 0 W/m 25,7 km/h (4 Bft) 100,00 %
31.01.2022 05:26 4,7 C 3,9 C 0,6 C 96 % 1008,7 hPa 0,0 l/m 0 min 0 min 0 W/m 22,5 km/h (4 Bft) 100,00 %
31.01.2022 05:28 4,7 C 3,9 C 0,6 C 96 % 1008,7 hPa 0,0 l/m 0 min 0 min 0 W/m 19,3 km/h (3 Bft) 100,00 %
31.01.2022 05:30 4,7 C 3,9 C 0,6 C 96 % 1008,8 hPa 0,0 l/m 0 min 0 min 0 W/m 25,7 km/h (4 Bft) 100,00 %
31.01.2022 05:32 4,7 C 3,9 C 0,6 C 96 % 1008,7 hPa 0,0 l/m 0 min 0 min 0 W/m 16,1 km/h (3 Bft) 97,92 %
31.01.2022 05:34 4,7 C 3,9 C 1,1 C 96 % 1008,9 hPa 0,0 l/m 0 min 0 min 0 W/m 22,5 km/h (4 Bft) 97,87 %
31.01.2022 05:36 4,8 C 3,9 C 1,1 C 96 % 1008,8 hPa 0,0 l/m 0 min 0 min 0 W/m 22,5 km/h (4 Bft) 95,74 %
31.01.2022 05:38 4,8 C 3,9 C 1,1 C 96 % 1008,8 hPa 0,0 l/m 0 min 0 min 0 W/m 25,7 km/h (4 Bft) 95,74 %
31.01.2022 05:40 4,8 C 3,9 C 1,1 C 96 % 1008,8 hPa 0,0 l/m 0 min 0 min 0 W/m 19,3 km/h (3 Bft) 95,65 %
31.01.2022 05:42 4,9 C 4,4 C 1,1 C 96 % 1008,8 hPa 0,0 l/m 0 min 0 min 0 W/m 16,1 km/h (3 Bft) 95,74 %
31.01.2022 05:44 4,9 C 4,4 C 1,1 C 96 % 1008,9 hPa 0,0 l/m 0 min 0 min 0 W/m 16,1 km/h (3 Bft) 97,87 %
31.01.2022 05:46 4,9 C 4,4 C 1,1 C 96 % 1008,8 hPa 0,0 l/m 0 min 0 min 0 W/m 16,1 km/h (3 Bft) 97,87 %
31.01.2022 05:48 5,0 C 4,4 C 1,1 C 96 % 1008,7 hPa 0,0 l/m 0 min 0 min 0 W/m 16,1 km/h (3 Bft) 97,87 %
31.01.2022 05:50 5,1 C 4,4 C 1,1 C 96 % 1008,6 hPa 0,0 l/m 0 min 0 min 0 W/m 16,1 km/h (3 Bft) 97,83 %
31.01.2022 05:52 5,1 C 4,4 C 1,1 C 96 % 1008,6 hPa 0,0 l/m 0 min 0 min 0 W/m 19,3 km/h (3 Bft) 97,87 %
31.01.2022 05:54 5,1 C 4,4 C 1,1 C 96 % 1008,6 hPa 0,0 l/m 0 min 0 min 0 W/m 22,5 km/h (4 Bft) 97,87 %
31.01.2022 05:56 5,1 C 4,4 C 1,1 C 96 % 1008,6 hPa 0,0 l/m 0 min 0 min 0 W/m 16,1 km/h (3 Bft) 97,87 %
31.01.2022 05:58 5,1 C 4,4 C 1,1 C 96 % 1008,6 hPa 0,0 l/m 0 min 2 min 0 W/m 25,7 km/h (4 Bft) 97,87 %
31.01.2022 06:00 5,2 C 4,4 C 1,1 C 96 % 1008,6 hPa 0,0 l/m 0 min 2 min 0 W/m 22,5 km/h (4 Bft) 97,87 %
31.01.2022 06:02 5,2 C 4,4 C 1,1 C 96 % 1008,7 hPa 0,0 l/m 0 min 2 min 0 W/m 25,7 km/h (4 Bft) 95,83 %
31.01.2022 06:04 5,2 C 4,4 C 1,1 C 96 % 1008,5 hPa 0,0 l/m 0 min 2 min 0 W/m 16,1 km/h (3 Bft) 97,83 %
31.01.2022 06:06 5,2 C 4,4 C 1,1 C 96 % 1008,5 hPa 0,0 l/m 0 min 2 min 0 W/m 12,9 km/h (3 Bft) 93,62 %
31.01.2022 06:08 5,2 C 4,4 C 1,1 C 96 % 1008,4 hPa 0,0 l/m 0 min 2 min 0 W/m 19,3 km/h (3 Bft) 97,87 %
31.01.2022 06:10 5,2 C 4,4 C 1,1 C 96 % 1008,4 hPa 0,0 l/m 0 min 2 min 0 W/m 22,5 km/h (4 Bft) 95,74 %
31.01.2022 06:12 5,2 C 4,4 C 1,1 C 96 % 1008,5 hPa 0,0 l/m 0 min 2 min 0 W/m 19,3 km/h (3 Bft) 100,00 %
31.01.2022 06:14 5,2 C 4,4 C 1,1 C 96 % 1008,5 hPa 0,0 l/m 0 min 2 min 0 W/m 25,7 km/h (4 Bft) 97,87 %
31.01.2022 06:16 5,3 C 4,4 C 1,7 C 96 % 1008,5 hPa 0,0 l/m 0 min 2 min 0 W/m 25,7 km/h (4 Bft) 95,65 %
31.01.2022 06:18 5,3 C 4,4 C 1,7 C 96 % 1008,4 hPa 0,0 l/m 0 min 2 min 0 W/m 22,5 km/h (4 Bft) 95,74 %
31.01.2022 06:20 5,3 C 4,4 C 1,7 C 96 % 1008,4 hPa 0,0 l/m 0 min 2 min 0 W/m 16,1 km/h (3 Bft) 97,87 %
31.01.2022 06:22 5,3 C 4,4 C 1,7 C 96 % 1008,4 hPa 0,0 l/m 0 min 2 min 0 W/m 19,3 km/h (3 Bft) 97,87 %
31.01.2022 06:24 5,3 C 4,4 C 1,7 C 96 % 1008,4 hPa 0,0 l/m 0 min 2 min 0 W/m 19,3 km/h (3 Bft) 97,87 %
31.01.2022 06:26 5,3 C 4,4 C 1,7 C 96 % 1008,3 hPa 0,0 l/m 0 min 2 min 0 W/m 16,1 km/h (3 Bft) 97,87 %
31.01.2022 06:28 5,3 C 4,4 C 1,7 C 96 % 1008,3 hPa 0,0 l/m 0 min 2 min 0 W/m 16,1 km/h (3 Bft) 97,83 %
31.01.2022 06:30 5,3 C 4,4 C 1,7 C 96 % 1008,2 hPa 0,0 l/m 0 min 2 min 0 W/m 22,5 km/h (4 Bft) 97,87 %
31.01.2022 06:32 5,3 C 4,4 C 1,7 C 96 % 1008,2 hPa 0,0 l/m 0 min 2 min 0 W/m 16,1 km/h (3 Bft) 95,74 %
31.01.2022 06:34 5,3 C 4,4 C 1,7 C 96 % 1008,2 hPa 0,0 l/m 0 min 2 min 0 W/m 16,1 km/h (3 Bft) 97,87 %
31.01.2022 06:36 5,4 C 4,4 C 1,7 C 96 % 1008,1 hPa 0,0 l/m 0 min 2 min 0 W/m 19,3 km/h (3 Bft) 93,62 %
31.01.2022 06:38 5,4 C 4,4 C 1,7 C 96 % 1008,1 hPa 0,0 l/m 0 min 2 min 0 W/m 19,3 km/h (3 Bft) 95,74 %
31.01.2022 06:40 5,4 C 5,0 C 1,7 C 96 % 1008,1 hPa 0,0 l/m 0 min 2 min 0 W/m 32,2 km/h (5 Bft) 97,83 %
31.01.2022 06:42 5,4 C 5,0 C 1,7 C 96 % 1008,1 hPa 0,0 l/m 0 min 2 min 0 W/m 16,1 km/h (3 Bft) 97,87 %
31.01.2022 06:44 5,4 C 5,0 C 1,7 C 96 % 1008,2 hPa 0,0 l/m 0 min 2 min 0 W/m 16,1 km/h (3 Bft) 97,87 %
31.01.2022 06:46 5,4 C 5,0 C 1,7 C 96 % 1008,2 hPa 0,0 l/m 0 min 2 min 0 W/m 22,5 km/h (4 Bft) 95,74 %
31.01.2022 06:48 5,4 C 5,0 C 1,7 C 95 % 1008,1 hPa 0,0 l/m 0 min 2 min 0 W/m 29,0 km/h (5 Bft) 97,87 %
31.01.2022 06:50 5,4 C 5,0 C 1,7 C 95 % 1008,1 hPa 0,0 l/m 0 min 2 min 0 W/m 16,1 km/h (3 Bft) 95,74 %
31.01.2022 06:52 5,4 C 5,0 C 1,7 C 95 % 1008,1 hPa 0,0 l/m 0 min 2 min 0 W/m 19,3 km/h (3 Bft) 97,83 %
31.01.2022 06:54 5,5 C 5,0 C 1,7 C 95 % 1008,1 hPa 0,0 l/m 0 min 2 min 0 W/m 22,5 km/h (4 Bft) 97,87 %
31.01.2022 06:56 5,5 C 5,0 C 1,7 C 95 % 1008,1 hPa 0,0 l/m 0 min 2 min 0 W/m 35,4 km/h (5 Bft) 97,87 %
31.01.2022 06:58 5,5 C 5,0 C 1,7 C 95 % 1008,1 hPa 0,0 l/m 0 min 0 min 0 W/m 25,7 km/h (4 Bft) 95,74 %
31.01.2022 07:00 5,5 C 5,0 C 1,7 C 94 % 1008,0 hPa 0,0 l/m 0 min 0 min 0 W/m 19,3 km/h (3 Bft) 95,74 %
31.01.2022 07:02 5,5 C 5,0 C 1,7 C 94 % 1007,9 hPa 0,0 l/m 0 min 2 min 0 W/m 25,7 km/h (4 Bft) 95,65 %
31.01.2022 07:04 5,5 C 5,0 C 1,1 C 94 % 1007,8 hPa 0,0 l/m 0 min 2 min 0 W/m 19,3 km/h (3 Bft) 97,87 %
31.01.2022 07:06 5,5 C 5,0 C 1,1 C 94 % 1007,8 hPa 0,0 l/m 0 min 0 min 0 W/m 25,7 km/h (4 Bft) 97,87 %
31.01.2022 07:10 5,6 C 5,0 C 1,1 C 93 % 1007,9 hPa 0,0 l/m 0 min 0 min 0 W/m 22,5 km/h (4 Bft) 97,78 %
31.01.2022 07:12 5,6 C 5,0 C 1,1 C 93 % 1007,9 hPa 0,0 l/m 0 min 0 min 0 W/m 22,5 km/h (4 Bft) 97,96 %
31.01.2022 07:14 5,6 C 5,0 C 1,1 C 93 % 1007,8 hPa 0,0 l/m 0 min 0 min 0 W/m 16,1 km/h (3 Bft) 97,83 %
31.01.2022 07:16 5,6 C 5,0 C 1,1 C 93 % 1007,7 hPa 0,0 l/m 0 min 0 min 0 W/m 22,5 km/h (4 Bft) 93,62 %
31.01.2022 07:18 5,6 C 5,0 C 1,1 C 92 % 1007,8 hPa 0,0 l/m 0 min 2 min 0 W/m 19,3 km/h (3 Bft) 95,74 %
31.01.2022 07:20 5,6 C 5,0 C 1,1 C 92 % 1007,7 hPa 0,0 l/m 0 min 0 min 0 W/m 12,9 km/h (3 Bft) 97,87 %
31.01.2022 07:22 5,6 C 5,0 C 1,1 C 92 % 1007,7 hPa 0,0 l/m 0 min 0 min 0 W/m 22,5 km/h (4 Bft) 95,74 %
31.01.2022 07:24 5,6 C 5,0 C 1,1 C 92 % 1007,7 hPa 0,0 l/m 0 min 0 min 0 W/m 12,9 km/h (3 Bft) 97,87 %
31.01.2022 07:26 5,6 C 5,0 C 1,1 C 92 % 1007,7 hPa 0,0 l/m 0 min 0 min 0 W/m 19,3 km/h (3 Bft) 97,83 %
31.01.2022 07:28 5,6 C 5,0 C 1,1 C 92 % 1007,7 hPa 0,0 l/m 0 min 0 min 0 W/m 25,7 km/h (4 Bft) 97,87 %
31.01.2022 07:30 5,5 C 5,0 C 1,1 C 91 % 1007,6 hPa 0,0 l/m 0 min 0 min 0 W/m 19,3 km/h (3 Bft) 97,87 %
31.01.2022 07:32 5,5 C 5,0 C 1,1 C 91 % 1007,5 hPa 0,0 l/m 0 min 0 min 0 W/m 12,9 km/h (3 Bft) 97,87 %
31.01.2022 07:34 5,5 C 5,0 C 1,1 C 91 % 1007,6 hPa 0,0 l/m 0 min 0 min 0 W/m 19,3 km/h (3 Bft) 97,87 %
31.01.2022 07:36 5,5 C 5,0 C 1,1 C 91 % 1007,6 hPa 0,0 l/m 0 min 0 min 0 W/m 16,1 km/h (3 Bft) 93,62 %
31.01.2022 07:38 5,5 C 5,0 C 1,1 C 91 % 1007,6 hPa 0,0 l/m 0 min 2 min 0 W/m 19,3 km/h (3 Bft) 100,00 %
31.01.2022 07:40 5,5 C 5,0 C 1,1 C 91 % 1007,6 hPa 0,0 l/m 0 min 2 min 0 W/m 22,5 km/h (4 Bft) 97,87 %
31.01.2022 07:42 5,6 C 4,4 C 1,1 C 91 % 1007,6 hPa 0,0 l/m 0 min 2 min 0 W/m 19,3 km/h (3 Bft) 100,00 %
31.01.2022 07:44 5,5 C 4,4 C 1,1 C 91 % 1007,7 hPa 0,2 l/m 0 min 2 min 0 W/m 25,7 km/h (4 Bft) 100,00 %
31.01.2022 07:46 5,5 C 4,4 C 1,1 C 91 % 1007,7 hPa 0,0 l/m 0 min 2 min 0 W/m 19,3 km/h (3 Bft) 97,87 %
31.01.2022 07:48 5,4 C 4,4 C 1,1 C 91 % 1007,7 hPa 0,2 l/m 0 min 2 min 0 W/m 16,1 km/h (3 Bft) 100,00 %
31.01.2022 07:50 5,4 C 3,9 C 1,1 C 91 % 1007,7 hPa 0,0 l/m 0 min 2 min 0 W/m 29,0 km/h (5 Bft) 97,83 %
31.01.2022 07:52 5,3 C 3,9 C 1,1 C 92 % 1007,8 hPa 0,2 l/m 0 min 2 min 0 W/m 22,5 km/h (4 Bft) 100,00 %
31.01.2022 07:54 5,3 C 3,9 C 1,1 C 92 % 1008,1 hPa 0,2 l/m 0 min 2 min 0 W/m 32,2 km/h (5 Bft) 95,74 %
31.01.2022 07:56 5,1 C 3,9 C 1,1 C 92 % 1008,2 hPa 0,4 l/m 0 min 2 min 0 W/m 32,2 km/h (5 Bft) 97,87 %
31.01.2022 07:58 5,0 C 3,3 C 1,1 C 92 % 1008,2 hPa 0,2 l/m 0 min 2 min 0 W/m 41,8 km/h (6 Bft) 97,87 %
31.01.2022 08:00 4,8 C 3,3 C 0,6 C 92 % 1008,2 hPa 0,2 l/m 0 min 2 min 0 W/m 45,1 km/h (6 Bft) 97,87 %
31.01.2022 08:02 4,7 C 3,3 C 0,6 C 92 % 1008,4 hPa 0,4 l/m 0 min 2 min 0 W/m 35,4 km/h (5 Bft) 97,56 %
31.01.2022 08:04 4,6 C 3,3 C 0,6 C 93 % 1008,3 hPa 0,0 l/m 0 min 2 min 0 W/m 22,5 km/h (4 Bft) 93,62 %
31.01.2022 08:06 4,4 C 2,8 C 0,6 C 93 % 1008,0 hPa 0,2 l/m 0 min 2 min 0 W/m 19,3 km/h (3 Bft) 96,55 %
31.01.2022 08:08 4,3 C 2,8 C 0,6 C 93 % 1007,9 hPa 0,0 l/m 0 min 2 min 0 W/m 22,5 km/h (4 Bft) 95,74 %
31.01.2022 08:10 4,3 C 2,8 C 0,6 C 93 % 1007,8 hPa 0,0 l/m 0 min 2 min 0 W/m 22,5 km/h (4 Bft) 94,29 %
31.01.2022 08:12 4,2 C 3,3 C 0,6 C 93 % 1007,8 hPa 0,0 l/m 0 min 0 min 0 W/m 12,9 km/h (3 Bft) 95,74 %
31.01.2022 08:14 4,2 C 3,3 C 0,6 C 94 % 1007,7 hPa 0,0 l/m 0 min 2 min 0 W/m 25,7 km/h (4 Bft) 95,74 %
31.01.2022 08:16 4,2 C 3,3 C 0,6 C 94 % 1007,7 hPa 0,0 l/m 0 min 0 min 0 W/m 16,1 km/h (3 Bft) 95,74 %
31.01.2022 08:18 4,2 C 3,3 C 0,6 C 94 % 1007,7 hPa 0,0 l/m 0 min 0 min 0 W/m 22,5 km/h (4 Bft) 95,74 %
31.01.2022 08:20 4,2 C 3,3 C 0,6 C 94 % 1007,6 hPa 0,0 l/m 0 min 0 min 0 W/m 29,0 km/h (5 Bft) 56,52 %
31.01.2022 08:22 4,2 C 3,3 C 0,6 C 94 % 1007,6 hPa 0,0 l/m 0 min 0 min 0 W/m 22,5 km/h (4 Bft) 93,18 %
31.01.2022 08:24 4,2 C 3,3 C 0,6 C 94 % 1007,5 hPa 0,0 l/m 0 min 0 min 0 W/m 19,3 km/h (3 Bft) 93,62 %
31.01.2022 08:26 4,2 C 3,3 C 0,6 C 94 % 1007,5 hPa 0,0 l/m 0 min 0 min 0 W/m 35,4 km/h (5 Bft) 91,49 %
31.01.2022 08:28 4,3 C 3,9 C 0,6 C 94 % 1007,6 hPa 0,0 l/m 0 min 0 min 0 W/m 25,7 km/h (4 Bft) 97,87 %
31.01.2022 08:30 4,3 C 3,9 C 0,6 C 94 % 1007,5 hPa 0,0 l/m 0 min 0 min 2 W/m 25,7 km/h (4 Bft) 93,62 %
31.01.2022 08:32 4,3 C 3,9 C 0,6 C 94 % 1007,6 hPa 0,0 l/m 0 min 0 min 0 W/m 22,5 km/h (4 Bft) 95,74 %
31.01.2022 08:34 4,3 C 3,9 C 0,6 C 94 % 1007,6 hPa 0,0 l/m 0 min 0 min 4 W/m 25,7 km/h (4 Bft) 93,62 %
31.01.2022 08:36 4,3 C 3,9 C 0,6 C 94 % 1007,5 hPa 0,0 l/m 0 min 0 min 5 W/m 19,3 km/h (3 Bft) 97,87 %
31.01.2022 08:38 4,4 C 3,9 C 0,6 C 94 % 1007,5 hPa 0,0 l/m 0 min 0 min 6 W/m 25,7 km/h (4 Bft) 97,87 %
31.01.2022 08:40 4,4 C 3,9 C 0,6 C 94 % 1007,4 hPa 0,0 l/m 0 min 0 min 7 W/m 19,3 km/h (3 Bft) 100,00 %
31.01.2022 08:42 4,4 C 3,9 C 0,6 C 95 % 1007,4 hPa 0,0 l/m 0 min 0 min 6 W/m 16,1 km/h (3 Bft) 100,00 %
31.01.2022 08:43 4,4 C 3,9 C 1,1 C 95 % 1007,5 hPa 0,0 l/m 0 min 0 min 9 W/m 22,5 km/h (4 Bft) 100,00 %
31.01.2022 08:46 4,4 C 3,9 C 1,1 C 95 % 1007,5 hPa 0,0 l/m 0 min 0 min 11 W/m 22,5 km/h (4 Bft) 100,00 %
31.01.2022 08:48 4,4 C 3,9 C 1,1 C 95 % 1007,5 hPa 0,0 l/m 0 min 0 min 12 W/m 22,5 km/h (4 Bft) 100,00 %
31.01.2022 08:50 4,5 C 3,9 C 1,1 C 95 % 1007,6 hPa 0,0 l/m 0 min 0 min 10 W/m 22,5 km/h (4 Bft) 100,00 %
31.01.2022 08:52 4,5 C 3,9 C 1,1 C 95 % 1007,6 hPa 0,0 l/m 0 min 2 min 9 W/m 16,1 km/h (3 Bft) 100,00 %
31.01.2022 08:54 4,5 C 3,9 C 1,1 C 95 % 1007,6 hPa 0,0 l/m 0 min 2 min 9 W/m 25,7 km/h (4 Bft) 100,00 %
31.01.2022 08:56 4,6 C 3,9 C 1,1 C 95 % 1007,6 hPa 0,0 l/m 0 min 2 min 9 W/m 35,4 km/h (5 Bft) 100,00 %
31.01.2022 08:58 4,6 C 3,9 C 1,1 C 95 % 1007,5 hPa 0,0 l/m 0 min 2 min 10 W/m 19,3 km/h (3 Bft) 100,00 %
31.01.2022 09:00 4,6 C 3,9 C 1,1 C 95 % 1007,5 hPa 0,0 l/m 0 min 2 min 12 W/m 19,3 km/h (3 Bft) 97,87 %
31.01.2022 09:02 4,6 C 3,9 C 1,1 C 95 % 1007,6 hPa 0,0 l/m 0 min 2 min 14 W/m 38,6 km/h (5 Bft) 100,00 %
31.01.2022 09:04 4,6 C 3,9 C 1,1 C 95 % 1007,6 hPa 0,0 l/m 0 min 2 min 14 W/m 41,8 km/h (6 Bft) 97,87 %
31.01.2022 09:06 4,6 C 3,9 C 1,1 C 95 % 1007,6 hPa 0,2 l/m 0 min 2 min 14 W/m 38,6 km/h (5 Bft) 100,00 %
31.01.2022 09:08 4,7 C 3,9 C 1,1 C 95 % 1007,7 hPa 0,0 l/m 0 min 2 min 11 W/m 29,0 km/h (5 Bft) 100,00 %
31.01.2022 09:10 4,7 C 3,9 C 1,1 C 95 % 1007,7 hPa 0,0 l/m 0 min 2 min 10 W/m 22,5 km/h (4 Bft) 100,00 %
31.01.2022 09:12 4,7 C 3,9 C 1,1 C 95 % 1007,8 hPa 0,0 l/m 0 min 2 min 11 W/m 29,0 km/h (5 Bft) 100,00 %
31.01.2022 09:14 4,7 C 3,9 C 1,1 C 95 % 1007,8 hPa 0,0 l/m 0 min 2 min 10 W/m 29,0 km/h (5 Bft) 97,87 %
31.01.2022 09:16 4,7 C 3,9 C 1,1 C 95 % 1007,9 hPa 0,2 l/m 0 min 2 min 9 W/m 25,7 km/h (4 Bft) 100,00 %
31.01.2022 09:18 4,7 C 3,9 C 1,1 C 95 % 1007,8 hPa 0,0 l/m 0 min 2 min 6 W/m 25,7 km/h (4 Bft) 100,00 %
31.01.2022 09:20 4,7 C 3,9 C 1,1 C 95 % 1007,7 hPa 0,0 l/m 0 min 2 min 7 W/m 35,4 km/h (5 Bft) 76,60 %
31.01.2022 09:22 4,6 C 3,9 C 1,1 C 94 % 1007,8 hPa 0,2 l/m 0 min 2 min 7 W/m 35,4 km/h (5 Bft) 76,92 %
31.01.2022 09:24 4,6 C 3,9 C 1,1 C 95 % 1007,8 hPa 0,0 l/m 0 min 2 min 9 W/m 45,1 km/h (6 Bft) 100,00 %
31.01.2022 09:26 4,6 C 3,9 C 1,1 C 95 % 1007,8 hPa 0,0 l/m 0 min 2 min 7 W/m 29,0 km/h (5 Bft) 100,00 %
31.01.2022 09:28 4,6 C 3,9 C 1,1 C 95 % 1007,8 hPa 0,2 l/m 0 min 2 min 7 W/m 25,7 km/h (4 Bft) 97,87 %
31.01.2022 09:30 4,5 C 3,9 C 1,1 C 95 % 1007,8 hPa 0,2 l/m 0 min 2 min 7 W/m 29,0 km/h (5 Bft) 100,00 %
31.01.2022 09:32 4,4 C 3,9 C 1,1 C 95 % 1007,7 hPa 0,0 l/m 0 min 2 min 8 W/m 22,5 km/h (4 Bft) 97,92 %
31.01.2022 09:34 4,4 C 3,9 C 1,1 C 95 % 1007,7 hPa 0,0 l/m 0 min 2 min 7 W/m 22,5 km/h (4 Bft) 100,00 %
31.01.2022 09:36 4,4 C 3,3 C 1,1 C 95 % 1007,6 hPa 0,0 l/m 0 min 2 min 9 W/m 22,5 km/h (4 Bft) 100,00 %
31.01.2022 09:38 4,3 C 3,3 C 1,1 C 95 % 1007,6 hPa 0,2 l/m 0 min 2 min 12 W/m 25,7 km/h (4 Bft) 100,00 %
31.01.2022 09:40 4,3 C 3,3 C 0,6 C 95 % 1007,6 hPa 0,0 l/m 0 min 2 min 13 W/m 25,7 km/h (4 Bft) 100,00 %
31.01.2022 09:42 4,3 C 3,3 C 0,6 C 95 % 1007,6 hPa 0,0 l/m 0 min 2 min 15 W/m 16,1 km/h (3 Bft) 100,00 %
31.01.2022 09:44 4,3 C 3,3 C 0,6 C 95 % 1007,6 hPa 0,0 l/m 0 min 2 min 17 W/m 16,1 km/h (3 Bft) 97,87 %
31.01.2022 09:46 4,3 C 3,3 C 1,1 C 95 % 1007,6 hPa 0,0 l/m 0 min 2 min 17 W/m 19,3 km/h (3 Bft) 97,87 %
31.01.2022 09:48 4,2 C 3,3 C 0,6 C 95 % 1007,6 hPa 0,0 l/m 0 min 2 min 20 W/m 32,2 km/h (5 Bft) 100,00 %
31.01.2022 09:50 4,2 C 3,3 C 0,6 C 95 % 1007,6 hPa 0,0 l/m 0 min 2 min 20 W/m 19,3 km/h (3 Bft) 100,00 %
31.01.2022 09:52 4,2 C 3,9 C 0,6 C 95 % 1007,6 hPa 0,2 l/m 0 min 2 min 22 W/m 25,7 km/h (4 Bft) 100,00 %
31.01.2022 09:54 4,2 C 3,9 C 0,6 C 95 % 1007,6 hPa 0,0 l/m 0 min 2 min 24 W/m 38,6 km/h (5 Bft) 100,00 %
31.01.2022 09:56 4,3 C 3,9 C 1,1 C 95 % 1007,5 hPa 0,0 l/m 0 min 2 min 24 W/m 29,0 km/h (5 Bft) 97,87 %
31.01.2022 09:58 4,3 C 3,9 C 1,1 C 95 % 1007,5 hPa 0,0 l/m 0 min 2 min 27 W/m 22,5 km/h (4 Bft) 95,74 %
31.01.2022 10:00 4,3 C 3,9 C 1,1 C 95 % 1007,5 hPa 0,0 l/m 0 min 2 min 27 W/m 29,0 km/h (5 Bft) 95,74 %
31.01.2022 10:02 4,3 C 3,9 C 1,1 C 95 % 1007,4 hPa 0,0 l/m 0 min 2 min 33 W/m 19,3 km/h (3 Bft) 95,83 %
31.01.2022 10:04 4,3 C 3,9 C 1,1 C 95 % 1007,6 hPa 0,0 l/m 0 min 2 min 34 W/m 25,7 km/h (4 Bft) 93,48 %
31.01.2022 10:06 4,3 C 3,9 C 1,1 C 95 % 1007,5 hPa 0,0 l/m 0 min 2 min 32 W/m 25,7 km/h (4 Bft) 93,62 %
31.01.2022 10:08 4,3 C 3,9 C 1,1 C 95 % 1007,5 hPa 0,0 l/m 0 min 2 min 33 W/m 19,3 km/h (3 Bft) 95,74 %
31.01.2022 10:10 4,3 C 3,9 C 1,1 C 95 % 1007,5 hPa 0,0 l/m 0 min 2 min 34 W/m 32,2 km/h (5 Bft) 93,62 %
31.01.2022 10:12 4,3 C 3,9 C 1,1 C 95 % 1007,5 hPa 0,2 l/m 0 min 2 min 31 W/m 32,2 km/h (5 Bft) 91,49 %
31.01.2022 10:14 4,3 C 3,9 C 1,1 C 95 % 1007,3 hPa 0,0 l/m 0 min 2 min 32 W/m 32,2 km/h (5 Bft) 93,62 %
31.01.2022 10:16 4,3 C 3,9 C 1,1 C 95 % 1007,3 hPa 0,0 l/m 0 min 2 min 32 W/m 35,4 km/h (5 Bft) 93,48 %
31.01.2022 10:18 4,3 C 3,9 C 1,1 C 95 % 1007,4 hPa 0,2 l/m 0 min 2 min 34 W/m 25,7 km/h (4 Bft) 95,74 %
31.01.2022 10:20 4,3 C 3,9 C 1,1 C 95 % 1007,4 hPa 0,0 l/m 0 min 2 min 30 W/m 25,7 km/h (4 Bft) 95,74 %
31.01.2022 10:22 4,3 C 3,9 C 1,1 C 95 % 1007,3 hPa 0,0 l/m 0 min 2 min 23 W/m 29,0 km/h (5 Bft) 95,74 %
31.01.2022 10:24 4,3 C 3,9 C 1,1 C 96 % 1007,4 hPa 0,0 l/m 0 min 2 min 20 W/m 16,1 km/h (3 Bft) 95,74 %
31.01.2022 10:26 4,3 C 3,9 C 1,1 C 96 % 1007,3 hPa 0,0 l/m 0 min 2 min 21 W/m 22,5 km/h (4 Bft) 93,62 %
31.01.2022 10:28 4,3 C 3,9 C 1,1 C 96 % 1007,2 hPa 0,0 l/m 0 min 2 min 21 W/m 25,7 km/h (4 Bft) 95,74 %
31.01.2022 10:30 4,3 C 3,9 C 1,1 C 96 % 1007,1 hPa 0,0 l/m 0 min 2 min 24 W/m 32,2 km/h (5 Bft) 93,62 %
31.01.2022 10:32 4,4 C 3,9 C 1,1 C 95 % 1007,1 hPa 0,0 l/m 0 min 2 min 28 W/m 32,2 km/h (5 Bft) 95,74 %
31.01.2022 10:34 4,4 C 3,9 C 1,1 C 95 % 1007,2 hPa 0,0 l/m 0 min 2 min 34 W/m 32,2 km/h (5 Bft) 95,65 %
31.01.2022 10:36 4,4 C 3,9 C 1,1 C 95 % 1007,2 hPa 0,0 l/m 0 min 2 min 33 W/m 19,3 km/h (3 Bft) 93,62 %
31.01.2022 10:38 4,4 C 3,9 C 1,1 C 95 % 1007,2 hPa 0,2 l/m 0 min 2 min 35 W/m 29,0 km/h (5 Bft) 95,74 %
31.01.2022 10:40 4,4 C 3,9 C 1,1 C 96 % 1007,2 hPa 0,0 l/m 0 min 2 min 33 W/m 19,3 km/h (3 Bft) 95,74 %
31.01.2022 10:42 4,4 C 3,9 C 1,1 C 96 % 1007,3 hPa 0,0 l/m 0 min 2 min 30 W/m 22,5 km/h (4 Bft) 93,62 %
31.01.2022 10:44 4,4 C 3,9 C 1,1 C 96 % 1007,3 hPa 0,0 l/m 0 min 2 min 28 W/m 22,5 km/h (4 Bft) 91,49 %
31.01.2022 10:46 4,4 C 3,9 C 1,1 C 96 % 1007,3 hPa 0,2 l/m 0 min 2 min 27 W/m 32,2 km/h (5 Bft) 95,65 %
31.01.2022 10:48 4,4 C 3,9 C 1,1 C 96 % 1007,4 hPa 0,0 l/m 0 min 2 min 28 W/m 25,7 km/h (4 Bft) 91,49 %
31.01.2022 10:50 4,4 C 3,9 C 1,1 C 96 % 1007,3 hPa 0,0 l/m 0 min 2 min 31 W/m 35,4 km/h (5 Bft) 97,87 %
31.01.2022 10:52 4,5 C 3,9 C 1,1 C 96 % 1007,3 hPa 0,0 l/m 0 min 2 min 33 W/m 25,7 km/h (4 Bft) 97,87 %
31.01.2022 10:54 4,5 C 3,9 C 1,1 C 96 % 1007,2 hPa 0,0 l/m 0 min 2 min 27 W/m 29,0 km/h (5 Bft) 93,62 %
31.01.2022 10:56 4,5 C 3,9 C 1,1 C 96 % 1007,2 hPa 0,0 l/m 0 min 2 min 33 W/m 22,5 km/h (4 Bft) 97,87 %
31.01.2022 10:58 4,6 C 3,9 C 1,1 C 96 % 1007,3 hPa 0,0 l/m 0 min 2 min 37 W/m 22,5 km/h (4 Bft) 97,83 %
31.01.2022 11:00 4,6 C 3,9 C 1,1 C 96 % 1007,2 hPa 0,0 l/m 0 min 2 min 39 W/m 29,0 km/h (5 Bft) 97,87 %
31.01.2022 11:02 4,6 C 3,9 C 1,1 C 96 % 1007,4 hPa 0,0 l/m 0 min 2 min 44 W/m 32,2 km/h (5 Bft) 97,87 %
31.01.2022 11:04 4,6 C 3,9 C 1,7 C 96 % 1007,4 hPa 0,2 l/m 0 min 2 min 43 W/m 32,2 km/h (5 Bft) 95,74 %
31.01.2022 11:06 4,6 C 3,9 C 1,7 C 96 % 1007,5 hPa 0,0 l/m 0 min 2 min 40 W/m 29,0 km/h (5 Bft) 95,74 %
31.01.2022 11:08 4,7 C 3,9 C 1,7 C 96 % 1007,6 hPa 0,0 l/m 0 min 2 min 37 W/m 38,6 km/h (5 Bft) 95,74 %
31.01.2022 11:10 4,7 C 3,9 C 1,7 C 96 % 1007,5 hPa 0,0 l/m 0 min 2 min 31 W/m 45,1 km/h (6 Bft) 97,83 %
31.01.2022 11:12 4,7 C 3,9 C 1,1 C 96 % 1007,5 hPa 0,0 l/m 0 min 2 min 25 W/m 45,1 km/h (6 Bft) 97,87 %
31.01.2022 11:14 4,7 C 3,9 C 1,7 C 95 % 1007,5 hPa 0,2 l/m 0 min 2 min 24 W/m 22,5 km/h (4 Bft) 97,87 %
31.01.2022 11:16 4,7 C 3,9 C 1,7 C 95 % 1007,5 hPa 0,0 l/m 0 min 2 min 26 W/m 35,4 km/h (5 Bft) 100,00 %
31.01.2022 11:18 4,7 C 3,9 C 1,7 C 95 % 1007,4 hPa 0,0 l/m 0 min 2 min 26 W/m 32,2 km/h (5 Bft) 100,00 %
31.01.2022 11:20 4,6 C 3,9 C 1,7 C 95 % 1007,6 hPa 0,0 l/m 0 min 2 min 27 W/m 25,7 km/h (4 Bft) 100,00 %
31.01.2022 11:22 4,7 C 3,9 C 1,7 C 95 % 1007,7 hPa 0,0 l/m 0 min 2 min 28 W/m 25,7 km/h (4 Bft) 82,61 %
31.01.2022 11:24 4,7 C 3,9 C 1,7 C 95 % 1007,7 hPa 0,0 l/m 0 min 2 min 32 W/m 29,0 km/h (5 Bft) 72,09 %
31.01.2022 11:26 4,7 C 3,9 C 1,7 C 95 % 1007,8 hPa 0,2 l/m 0 min 2 min 36 W/m 38,6 km/h (5 Bft) 100,00 %
31.01.2022 11:28 4,7 C 3,9 C 1,7 C 95 % 1007,8 hPa 0,0 l/m 0 min 2 min 40 W/m 32,2 km/h (5 Bft) 100,00 %
31.01.2022 11:30 4,7 C 3,9 C 1,7 C 95 % 1007,7 hPa 0,0 l/m 0 min 2 min 44 W/m 35,4 km/h (5 Bft) 100,00 %
31.01.2022 11:32 4,7 C 3,9 C 1,7 C 95 % 1007,8 hPa 0,0 l/m 0 min 2 min 51 W/m 35,4 km/h (5 Bft) 100,00 %
31.01.2022 11:34 4,7 C 3,9 C 1,7 C 95 % 1007,9 hPa 0,0 l/m 0 min 2 min 52 W/m 35,4 km/h (5 Bft) 100,00 %
31.01.2022 11:36 4,7 C 4,4 C 1,7 C 95 % 1007,8 hPa 0,2 l/m 0 min 2 min 53 W/m 38,6 km/h (5 Bft) 100,00 %
31.01.2022 11:38 4,7 C 4,4 C 1,7 C 95 % 1007,9 hPa 0,0 l/m 0 min 2 min 56 W/m 38,6 km/h (5 Bft) 97,87 %
31.01.2022 11:40 4,8 C 4,4 C 1,7 C 95 % 1008,0 hPa 0,0 l/m 0 min 2 min 54 W/m 32,2 km/h (5 Bft) 97,87 %
31.01.2022 11:42 4,8 C 4,4 C 1,7 C 95 % 1008,1 hPa 0,0 l/m 0 min 2 min 54 W/m 38,6 km/h (5 Bft) 97,87 %
31.01.2022 11:44 4,8 C 4,4 C 1,7 C 95 % 1008,1 hPa 0,0 l/m 0 min 2 min 56 W/m 54,7 km/h (7 Bft) 100,00 %
31.01.2022 11:46 4,8 C 4,4 C 1,7 C 95 % 1007,9 hPa 0,0 l/m 0 min 2 min 63 W/m 51,5 km/h (7 Bft) 100,00 %
31.01.2022 11:48 4,8 C 4,4 C 1,7 C 95 % 1008,0 hPa 0,0 l/m 0 min 2 min 68 W/m 51,5 km/h (7 Bft) 97,87 %
31.01.2022 11:50 4,8 C 4,4 C 1,7 C 95 % 1008,2 hPa 0,0 l/m 0 min 2 min 61 W/m 32,2 km/h (5 Bft) 97,87 %
31.01.2022 11:52 4,8 C 4,4 C 1,7 C 95 % 1008,2 hPa 0,0 l/m 0 min 2 min 64 W/m 29,0 km/h (5 Bft) 97,87 %
31.01.2022 11:54 4,8 C 4,4 C 1,7 C 95 % 1008,4 hPa 0,0 l/m 0 min 2 min 51 W/m 54,7 km/h (7 Bft) 97,87 %
31.01.2022 11:56 4,8 C 4,4 C 1,7 C 95 % 1008,3 hPa 0,0 l/m 0 min 2 min 49 W/m 41,8 km/h (6 Bft) 95,74 %
31.01.2022 11:58 4,8 C 3,9 C 1,7 C 95 % 1008,2 hPa 0,0 l/m 0 min 2 min 61 W/m 32,2 km/h (5 Bft) 97,83 %
31.01.2022 12:00 4,8 C 3,9 C 1,7 C 95 % 1008,1 hPa 0,0 l/m 0 min 2 min 64 W/m 35,4 km/h (5 Bft) 93,62 %
31.01.2022 12:02 4,7 C 3,9 C 1,7 C 95 % 1008,2 hPa 0,0 l/m 0 min 2 min 61 W/m 35,4 km/h (5 Bft) 97,87 %
31.01.2022 12:04 4,7 C 3,9 C 1,7 C 95 % 1008,2 hPa 0,0 l/m 0 min 2 min 46 W/m 29,0 km/h (5 Bft) 97,87 %
31.01.2022 12:08 4,7 C 3,9 C 1,7 C 95 % 1008,2 hPa 0,0 l/m 0 min 4 min 53 W/m 35,4 km/h (5 Bft) 96,81 %
31.01.2022 12:10 4,7 C 3,9 C 1,7 C 95 % 1008,2 hPa 0,0 l/m 0 min 2 min 74 W/m 32,2 km/h (5 Bft) 97,83 %
31.01.2022 12:12 4,7 C 4,4 C 1,7 C 95 % 1008,3 hPa 0,0 l/m 0 min 2 min 73 W/m 35,4 km/h (5 Bft) 97,87 %
31.01.2022 12:14 4,7 C 4,4 C 1,7 C 95 % 1008,3 hPa 0,0 l/m 0 min 2 min 67 W/m 32,2 km/h (5 Bft) 97,87 %
31.01.2022 12:16 4,7 C 4,4 C 1,7 C 95 % 1008,4 hPa 0,0 l/m 0 min 2 min 71 W/m 35,4 km/h (5 Bft) 97,87 %
31.01.2022 12:18 4,7 C 4,4 C 1,7 C 95 % 1008,3 hPa 0,0 l/m 0 min 2 min 68 W/m 38,6 km/h (5 Bft) 97,87 %
31.01.2022 12:20 4,7 C 4,4 C 1,7 C 95 % 1008,4 hPa 0,0 l/m 0 min 2 min 54 W/m 48,3 km/h (6 Bft) 100,00 %
31.01.2022 12:22 4,7 C 4,4 C 1,7 C 95 % 1008,4 hPa 0,0 l/m 0 min 2 min 55 W/m 38,6 km/h (5 Bft) 100,00 %
31.01.2022 12:24 4,8 C 4,4 C 1,7 C 95 % 1008,5 hPa 0,0 l/m 0 min 2 min 48 W/m 38,6 km/h (5 Bft) 100,00 %
31.01.2022 12:26 4,8 C 4,4 C 1,7 C 95 % 1008,5 hPa 0,0 l/m 0 min 2 min 43 W/m 22,5 km/h (4 Bft) 100,00 %
31.01.2022 12:28 4,8 C 4,4 C 1,7 C 95 % 1008,6 hPa 0,0 l/m 0 min 2 min 46 W/m 35,4 km/h (5 Bft) 100,00 %
31.01.2022 12:30 4,8 C 4,4 C 1,7 C 95 % 1008,4 hPa 0,0 l/m 0 min 2 min 51 W/m 38,6 km/h (5 Bft) 100,00 %
31.01.2022 12:32 4,8 C 4,4 C 1,7 C 95 % 1008,6 hPa 0,0 l/m 0 min 2 min 46 W/m 22,5 km/h (4 Bft) 100,00 %
31.01.2022 12:34 4,8 C 4,4 C 1,7 C 95 % 1008,7 hPa 0,0 l/m 0 min 2 min 52 W/m 22,5 km/h (4 Bft) 100,00 %
31.01.2022 12:36 4,8 C 4,4 C 1,7 C 95 % 1008,7 hPa 0,0 l/m 0 min 2 min 52 W/m 38,6 km/h (5 Bft) 100,00 %
31.01.2022 12:38 4,8 C 4,4 C 1,7 C 95 % 1008,8 hPa 0,0 l/m 0 min 2 min 49 W/m 29,0 km/h (5 Bft) 100,00 %
31.01.2022 12:40 4,8 C 4,4 C 1,7 C 95 % 1008,8 hPa 0,0 l/m 0 min 2 min 53 W/m 32,2 km/h (5 Bft) 100,00 %
31.01.2022 12:42 4,8 C 4,4 C 1,7 C 95 % 1008,8 hPa 0,0 l/m 0 min 2 min 58 W/m 38,6 km/h (5 Bft) 100,00 %
31.01.2022 12:44 4,8 C 4,4 C 1,7 C 95 % 1008,8 hPa 0,0 l/m 0 min 2 min 55 W/m 35,4 km/h (5 Bft) 95,74 %
31.01.2022 12:46 4,8 C 4,4 C 1,7 C 95 % 1008,9 hPa 0,0 l/m 0 min 2 min 50 W/m 32,2 km/h (5 Bft) 100,00 %
31.01.2022 12:48 4,8 C 4,4 C 1,7 C 95 % 1009,0 hPa 0,0 l/m 0 min 2 min 49 W/m 25,7 km/h (4 Bft) 100,00 %
31.01.2022 12:50 4,8 C 4,4 C 1,7 C 95 % 1008,9 hPa 0,0 l/m 0 min 2 min 56 W/m 32,2 km/h (5 Bft) 100,00 %
31.01.2022 12:52 4,8 C 4,4 C 1,7 C 95 % 1008,9 hPa 0,0 l/m 0 min 2 min 54 W/m 38,6 km/h (5 Bft) 100,00 %
31.01.2022 12:54 4,9 C 4,4 C 1,7 C 95 % 1009,0 hPa 0,0 l/m 0 min 2 min 51 W/m 29,0 km/h (5 Bft) 97,87 %
31.01.2022 12:56 4,9 C 4,4 C 1,7 C 95 % 1009,1 hPa 0,0 l/m 0 min 2 min 64 W/m 29,0 km/h (5 Bft) 100,00 %
31.01.2022 12:58 4,9 C 4,4 C 1,7 C 95 % 1009,0 hPa 0,0 l/m 0 min 2 min 61 W/m 29,0 km/h (5 Bft) 97,87 %
31.01.2022 13:00 4,9 C 4,4 C 1,7 C 95 % 1009,0 hPa 0,0 l/m 0 min 2 min 57 W/m 29,0 km/h (5 Bft) 100,00 %
31.01.2022 13:02 4,9 C 4,4 C 1,7 C 95 % 1009,1 hPa 0,0 l/m 0 min 2 min 58 W/m 57,9 km/h (7 Bft) 97,87 %
31.01.2022 13:04 4,9 C 4,4 C 1,7 C 95 % 1009,2 hPa 0,0 l/m 0 min 2 min 61 W/m 25,7 km/h (4 Bft) 97,87 %
31.01.2022 13:06 4,9 C 4,4 C 1,7 C 95 % 1009,1 hPa 0,0 l/m 0 min 2 min 58 W/m 35,4 km/h (5 Bft) 95,74 %
31.01.2022 13:08 5,0 C 4,4 C 1,7 C 95 % 1009,1 hPa 0,0 l/m 0 min 2 min 59 W/m 35,4 km/h (5 Bft) 93,62 %
31.01.2022 13:10 5,0 C 4,4 C 1,7 C 95 % 1009,1 hPa 0,0 l/m 0 min 2 min 68 W/m 32,2 km/h (5 Bft) 95,74 %
31.01.2022 13:12 5,0 C 4,4 C 1,7 C 95 % 1009,2 hPa 0,0 l/m 0 min 2 min 70 W/m 25,7 km/h (4 Bft) 95,74 %
31.01.2022 13:14 5,0 C 4,4 C 1,7 C 95 % 1009,2 hPa 0,0 l/m 0 min 2 min 54 W/m 29,0 km/h (5 Bft) 95,65 %
31.01.2022 13:16 5,0 C 4,4 C 1,7 C 95 % 1009,3 hPa 0,0 l/m 0 min 2 min 49 W/m 22,5 km/h (4 Bft) 95,74 %
31.01.2022 13:18 5,0 C 4,4 C 1,7 C 95 % 1009,2 hPa 0,0 l/m 0 min 2 min 56 W/m 22,5 km/h (4 Bft) 95,74 %
31.01.2022 13:20 5,0 C 4,4 C 1,7 C 95 % 1009,2 hPa 0,0 l/m 0 min 2 min 57 W/m 35,4 km/h (5 Bft) 95,74 %
31.01.2022 13:22 4,9 C 4,4 C 1,7 C 95 % 1009,3 hPa 0,0 l/m 0 min 2 min 57 W/m 51,5 km/h (7 Bft) 95,74 %
31.01.2022 13:24 4,9 C 4,4 C 1,7 C 94 % 1009,4 hPa 0,0 l/m 0 min 2 min 58 W/m 25,7 km/h (4 Bft) 93,48 %
31.01.2022 13:26 4,9 C 4,4 C 1,7 C 95 % 1009,4 hPa 0,0 l/m 0 min 2 min 64 W/m 48,3 km/h (6 Bft) 93,62 %
31.01.2022 13:28 4,9 C 4,4 C 1,7 C 95 % 1009,3 hPa 0,0 l/m 0 min 2 min 60 W/m 41,8 km/h (6 Bft) 95,74 %
31.01.2022 13:30 4,8 C 4,4 C 1,7 C 95 % 1009,5 hPa 0,0 l/m 0 min 2 min 72 W/m 38,6 km/h (5 Bft) 96,15 %
31.01.2022 13:32 4,8 C 4,4 C 1,7 C 95 % 1009,5 hPa 0,0 l/m 0 min 2 min 88 W/m 35,4 km/h (5 Bft) 93,62 %
31.01.2022 13:34 4,8 C 4,4 C 1,7 C 95 % 1009,5 hPa 0,0 l/m 0 min 2 min 90 W/m 38,6 km/h (5 Bft) 95,74 %
31.01.2022 13:36 4,8 C 4,4 C 1,7 C 95 % 1009,5 hPa 0,0 l/m 0 min 2 min 82 W/m 22,5 km/h (4 Bft) 93,88 %
31.01.2022 13:38 4,8 C 4,4 C 1,7 C 95 % 1009,5 hPa 0,0 l/m 0 min 2 min 89 W/m 25,7 km/h (4 Bft) 95,83 %
31.01.2022 13:40 4,8 C 4,4 C 1,7 C 95 % 1009,4 hPa 0,2 l/m 0 min 2 min 68 W/m 35,4 km/h (5 Bft) 91,49 %
31.01.2022 13:42 4,8 C 4,4 C 1,7 C 95 % 1009,5 hPa 0,0 l/m 0 min 2 min 80 W/m 38,6 km/h (5 Bft) 91,49 %
31.01.2022 13:44 4,9 C 4,4 C 1,7 C 95 % 1009,5 hPa 0,0 l/m 0 min 2 min 86 W/m 38,6 km/h (5 Bft) 93,48 %
31.01.2022 13:46 4,9 C 4,4 C 1,7 C 95 % 1009,6 hPa 0,0 l/m 0 min 2 min 73 W/m 35,4 km/h (5 Bft) 93,62 %
31.01.2022 13:48 4,9 C 4,4 C 1,7 C 95 % 1009,5 hPa 0,0 l/m 0 min 2 min 64 W/m 38,6 km/h (5 Bft) 93,62 %
31.01.2022 13:50 4,9 C 4,4 C 1,7 C 95 % 1009,7 hPa 0,0 l/m 0 min 2 min 56 W/m 32,2 km/h (5 Bft) 95,74 %
31.01.2022 13:52 4,9 C 4,4 C 1,7 C 95 % 1009,7 hPa 0,0 l/m 0 min 2 min 67 W/m 35,4 km/h (5 Bft) 100,00 %
31.01.2022 13:54 4,9 C 4,4 C 1,7 C 95 % 1009,6 hPa 0,0 l/m 0 min 2 min 55 W/m 29,0 km/h (5 Bft) 95,65 %
31.01.2022 13:56 4,9 C 4,4 C 1,7 C 95 % 1009,8 hPa 0,0 l/m 0 min 2 min 53 W/m 22,5 km/h (4 Bft) 97,87 %
31.01.2022 13:58 4,9 C 4,4 C 1,7 C 95 % 1009,8 hPa 0,0 l/m 0 min 2 min 61 W/m 22,5 km/h (4 Bft) 100,00 %
31.01.2022 14:00 4,9 C 4,4 C 1,7 C 95 % 1009,9 hPa 0,0 l/m 0 min 2 min 73 W/m 38,6 km/h (5 Bft) 95,74 %
31.01.2022 14:02 4,8 C 4,4 C 1,7 C 95 % 1009,9 hPa 0,0 l/m 0 min 2 min 72 W/m 25,7 km/h (4 Bft) 97,87 %
31.01.2022 14:04 4,8 C 4,4 C 1,7 C 95 % 1009,8 hPa 0,0 l/m 0 min 2 min 65 W/m 35,4 km/h (5 Bft) 97,87 %
31.01.2022 14:06 4,8 C 4,4 C 1,7 C 95 % 1009,8 hPa 0,0 l/m 0 min 2 min 63 W/m 29,0 km/h (5 Bft) 97,83 %
31.01.2022 14:08 4,8 C 4,4 C 1,7 C 95 % 1010,0 hPa 0,0 l/m 0 min 2 min 48 W/m 32,2 km/h (5 Bft) 97,87 %
31.01.2022 14:10 4,8 C 4,4 C 1,7 C 95 % 1009,9 hPa 0,0 l/m 0 min 2 min 55 W/m 25,7 km/h (4 Bft) 97,87 %
31.01.2022 14:12 4,8 C 4,4 C 1,7 C 95 % 1009,9 hPa 0,2 l/m 0 min 2 min 58 W/m 29,0 km/h (5 Bft) 97,87 %
31.01.2022 14:14 4,8 C 4,4 C 1,7 C 95 % 1009,9 hPa 0,0 l/m 0 min 2 min 58 W/m 29,0 km/h (5 Bft) 100,00 %
31.01.2022 14:16 4,8 C 4,4 C 1,7 C 96 % 1009,9 hPa 0,0 l/m 0 min 2 min 60 W/m 25,7 km/h (4 Bft) 100,00 %
31.01.2022 14:18 4,8 C 4,4 C 1,7 C 96 % 1010,0 hPa 0,0 l/m 0 min 2 min 60 W/m 35,4 km/h (5 Bft) 100,00 %
31.01.2022 14:20 4,8 C 4,4 C 1,7 C 96 % 1009,9 hPa 0,0 l/m 0 min 2 min 58 W/m 54,7 km/h (7 Bft) 97,83 %
31.01.2022 14:22 4,8 C 4,4 C 1,7 C 96 % 1010,0 hPa 0,0 l/m 0 min 2 min 51 W/m 29,0 km/h (5 Bft) 100,00 %
31.01.2022 14:24 4,8 C 4,4 C 2,2 C 96 % 1010,0 hPa 0,0 l/m 0 min 2 min 43 W/m 32,2 km/h (5 Bft) 100,00 %
31.01.2022 14:26 4,8 C 4,4 C 2,2 C 96 % 1009,9 hPa 0,0 l/m 0 min 2 min 45 W/m 29,0 km/h (5 Bft) 100,00 %
31.01.2022 14:28 4,8 C 4,4 C 2,2 C 96 % 1009,9 hPa 0,0 l/m 0 min 2 min 43 W/m 22,5 km/h (4 Bft) 95,74 %
31.01.2022 14:30 4,8 C 4,4 C 2,2 C 96 % 1010,0 hPa 0,0 l/m 0 min 2 min 40 W/m 41,8 km/h (6 Bft) 100,00 %
31.01.2022 14:32 4,8 C 4,4 C 2,2 C 96 % 1010,1 hPa 0,0 l/m 0 min 2 min 40 W/m 22,5 km/h (4 Bft) 100,00 %
31.01.2022 14:34 4,8 C 4,4 C 2,2 C 96 % 1010,2 hPa 0,0 l/m 0 min 2 min 37 W/m 19,3 km/h (3 Bft) 44,44 %
31.01.2022 14:36 4,8 C 4,4 C 2,2 C 96 % 1010,1 hPa 0,0 l/m 0 min 2 min 39 W/m 19,3 km/h (3 Bft) 97,87 %
31.01.2022 14:38 4,8 C 4,4 C 2,2 C 96 % 1010,2 hPa 0,0 l/m 0 min 2 min 40 W/m 29,0 km/h (5 Bft) 100,00 %
31.01.2022 14:40 4,8 C 4,4 C 2,2 C 96 % 1010,0 hPa 0,0 l/m 0 min 2 min 46 W/m 29,0 km/h (5 Bft) 100,00 %
31.01.2022 14:42 4,8 C 4,4 C 2,2 C 96 % 1010,1 hPa 0,0 l/m 0 min 2 min 40 W/m 29,0 km/h (5 Bft) 100,00 %
31.01.2022 14:44 4,8 C 4,4 C 2,2 C 96 % 1010,3 hPa 0,0 l/m 0 min 2 min 44 W/m 29,0 km/h (5 Bft) 100,00 %
31.01.2022 14:46 4,8 C 4,4 C 2,2 C 96 % 1010,2 hPa 0,0 l/m 0 min 2 min 55 W/m 29,0 km/h (5 Bft) 100,00 %
31.01.2022 14:48 4,8 C 4,4 C 2,2 C 96 % 1010,2 hPa 0,0 l/m 0 min 2 min 52 W/m 35,4 km/h (5 Bft) 100,00 %
31.01.2022 14:50 4,8 C 4,4 C 2,2 C 96 % 1010,1 hPa 0,0 l/m 0 min 2 min 50 W/m 51,5 km/h (7 Bft) 100,00 %
31.01.2022 14:52 4,8 C 4,4 C 2,2 C 96 % 1010,2 hPa 0,0 l/m 0 min 2 min 45 W/m 35,4 km/h (5 Bft) 100,00 %
31.01.2022 14:54 4,8 C 4,4 C 2,2 C 96 % 1010,2 hPa 0,0 l/m 0 min 2 min 44 W/m 35,4 km/h (5 Bft) 100,00 %
31.01.2022 14:56 4,8 C 4,4 C 2,2 C 97 % 1010,2 hPa 0,0 l/m 0 min 2 min 45 W/m 25,7 km/h (4 Bft) 100,00 %
31.01.2022 14:58 4,8 C 4,4 C 2,2 C 97 % 1010,2 hPa 0,2 l/m 0 min 2 min 48 W/m 35,4 km/h (5 Bft) 97,87 %
31.01.2022 15:00 4,8 C 4,4 C 2,2 C 97 % 1010,3 hPa 0,0 l/m 0 min 2 min 50 W/m 32,2 km/h (5 Bft) 100,00 %
31.01.2022 15:02 4,8 C 4,4 C 2,2 C 97 % 1010,3 hPa 0,0 l/m 0 min 2 min 45 W/m 35,4 km/h (5 Bft) 100,00 %
31.01.2022 15:04 4,8 C 4,4 C 2,2 C 97 % 1010,3 hPa 0,0 l/m 0 min 2 min 33 W/m 32,2 km/h (5 Bft) 100,00 %
31.01.2022 15:06 4,8 C 4,4 C 2,2 C 97 % 1010,4 hPa 0,0 l/m 0 min 2 min 27 W/m 29,0 km/h (5 Bft) 100,00 %
31.01.2022 15:08 4,9 C 4,4 C 2,2 C 97 % 1010,5 hPa 0,0 l/m 0 min 2 min 32 W/m 25,7 km/h (4 Bft) 100,00 %
31.01.2022 15:10 4,9 C 4,4 C 2,2 C 97 % 1010,5 hPa 0,0 l/m 0 min 2 min 37 W/m 32,2 km/h (5 Bft) 100,00 %
31.01.2022 15:12 4,9 C 4,4 C 2,2 C 97 % 1010,5 hPa 0,0 l/m 0 min 2 min 40 W/m 25,7 km/h (4 Bft) 100,00 %
31.01.2022 15:14 4,9 C 4,4 C 2,2 C 97 % 1010,6 hPa 0,0 l/m 0 min 2 min 45 W/m 38,6 km/h (5 Bft) 100,00 %
31.01.2022 15:16 4,9 C 4,4 C 2,2 C 97 % 1010,6 hPa 0,0 l/m 0 min 2 min 38 W/m 32,2 km/h (5 Bft) 97,87 %
31.01.2022 15:18 4,9 C 4,4 C 2,2 C 97 % 1010,6 hPa 0,0 l/m 0 min 2 min 35 W/m 25,7 km/h (4 Bft) 100,00 %
31.01.2022 15:20 4,9 C 4,4 C 2,2 C 97 % 1010,7 hPa 0,0 l/m 0 min 2 min 31 W/m 25,7 km/h (4 Bft) 100,00 %
31.01.2022 15:22 4,9 C 4,4 C 2,2 C 97 % 1010,6 hPa 0,0 l/m 0 min 2 min 33 W/m 25,7 km/h (4 Bft) 97,83 %
31.01.2022 15:24 4,9 C 4,4 C 2,2 C 97 % 1010,7 hPa 0,2 l/m 0 min 2 min 33 W/m 32,2 km/h (5 Bft) 100,00 %
31.01.2022 15:26 4,9 C 4,4 C 2,2 C 97 % 1010,7 hPa 0,0 l/m 0 min 2 min 30 W/m 25,7 km/h (4 Bft) 97,87 %
31.01.2022 15:28 4,9 C 4,4 C 2,2 C 97 % 1010,8 hPa 0,0 l/m 0 min 2 min 31 W/m 35,4 km/h (5 Bft) 97,87 %
31.01.2022 15:30 4,9 C 4,4 C 2,2 C 97 % 1010,8 hPa 0,0 l/m 0 min 2 min 33 W/m 22,5 km/h (4 Bft) 97,87 %
31.01.2022 15:32 4,9 C 4,4 C 2,2 C 97 % 1010,9 hPa 0,0 l/m 0 min 2 min 28 W/m 29,0 km/h (5 Bft) 97,92 %
31.01.2022 15:34 4,9 C 4,4 C 2,2 C 97 % 1011,0 hPa 0,0 l/m 0 min 2 min 23 W/m 22,5 km/h (4 Bft) 97,83 %
31.01.2022 15:36 4,9 C 4,4 C 2,2 C 97 % 1011,0 hPa 0,0 l/m 0 min 2 min 22 W/m 32,2 km/h (5 Bft) 97,87 %
31.01.2022 15:38 4,9 C 4,4 C 2,2 C 97 % 1011,0 hPa 0,0 l/m 0 min 2 min 24 W/m 25,7 km/h (4 Bft) 95,74 %
31.01.2022 15:40 4,9 C 4,4 C 2,2 C 97 % 1011,1 hPa 0,0 l/m 0 min 2 min 25 W/m 22,5 km/h (4 Bft) 97,87 %
31.01.2022 15:42 4,9 C 4,4 C 2,2 C 97 % 1011,1 hPa 0,0 l/m 0 min 2 min 25 W/m 25,7 km/h (4 Bft) 93,75 %
31.01.2022 15:44 4,9 C 4,4 C 2,2 C 97 % 1011,2 hPa 0,0 l/m 0 min 2 min 25 W/m 32,2 km/h (5 Bft) 95,74 %
31.01.2022 15:46 4,9 C 4,4 C 2,2 C 97 % 1011,1 hPa 0,0 l/m 0 min 2 min 25 W/m 25,7 km/h (4 Bft) 95,65 %
31.01.2022 15:48 4,9 C 4,4 C 2,2 C 97 % 1011,3 hPa 0,0 l/m 0 min 2 min 20 W/m 35,4 km/h (5 Bft) 95,74 %
31.01.2022 15:50 4,9 C 4,4 C 2,2 C 97 % 1011,3 hPa 0,0 l/m 0 min 2 min 20 W/m 32,2 km/h (5 Bft) 95,74 %
31.01.2022 15:52 4,9 C 4,4 C 2,2 C 97 % 1011,3 hPa 0,0 l/m 0 min 2 min 20 W/m 29,0 km/h (5 Bft) 95,74 %
31.01.2022 15:54 4,9 C 4,4 C 2,2 C 97 % 1011,4 hPa 0,0 l/m 0 min 2 min 24 W/m 48,3 km/h (6 Bft) 95,74 %
31.01.2022 15:56 4,9 C 4,4 C 2,2 C 97 % 1011,5 hPa 0,0 l/m 0 min 2 min 21 W/m 29,0 km/h (5 Bft) 95,74 %
31.01.2022 15:58 5,0 C 4,4 C 2,2 C 97 % 1011,4 hPa 0,0 l/m 0 min 2 min 19 W/m 35,4 km/h (5 Bft) 95,65 %
31.01.2022 16:00 4,9 C 4,4 C 2,2 C 97 % 1011,4 hPa 0,0 l/m 0 min 2 min 17 W/m 41,8 km/h (6 Bft) 93,62 %
31.01.2022 16:02 5,0 C 4,4 C 2,2 C 97 % 1011,5 hPa 0,0 l/m 0 min 2 min 14 W/m 35,4 km/h (5 Bft) 91,49 %
31.01.2022 16:04 5,0 C 4,4 C 2,2 C 97 % 1011,5 hPa 0,0 l/m 0 min 2 min 13 W/m 41,8 km/h (6 Bft) 95,74 %
31.01.2022 16:06 5,0 C 4,4 C 2,2 C 97 % 1011,6 hPa 0,0 l/m 0 min 2 min 12 W/m 32,2 km/h (5 Bft) 97,87 %
31.01.2022 16:08 5,0 C 4,4 C 2,2 C 97 % 1011,6 hPa 0,0 l/m 0 min 2 min 14 W/m 29,0 km/h (5 Bft) 95,74 %
31.01.2022 16:10 5,0 C 4,4 C 2,2 C 97 % 1011,6 hPa 0,2 l/m 0 min 2 min 18 W/m 22,5 km/h (4 Bft) 97,83 %
31.01.2022 16:12 5,0 C 4,4 C 2,2 C 97 % 1011,6 hPa 0,0 l/m 0 min 2 min 21 W/m 25,7 km/h (4 Bft) 95,74 %
31.01.2022 16:14 5,0 C 4,4 C 2,2 C 97 % 1011,7 hPa 0,0 l/m 0 min 2 min 22 W/m 22,5 km/h (4 Bft) 93,62 %
31.01.2022 16:16 5,0 C 4,4 C 2,2 C 97 % 1011,7 hPa 0,0 l/m 0 min 2 min 16 W/m 16,1 km/h (3 Bft) 93,62 %
31.01.2022 16:18 5,0 C 4,4 C 2,2 C 97 % 1011,8 hPa 0,0 l/m 0 min 2 min 14 W/m 29,0 km/h (5 Bft) 95,74 %
31.01.2022 16:20 5,0 C 4,4 C 2,2 C 97 % 1011,8 hPa 0,0 l/m 0 min 2 min 15 W/m 25,7 km/h (4 Bft) 95,74 %
31.01.2022 16:22 5,0 C 4,4 C 2,2 C 97 % 1011,8 hPa 0,0 l/m 0 min 2 min 15 W/m 25,7 km/h (4 Bft) 95,65 %
31.01.2022 16:24 5,0 C 4,4 C 2,2 C 97 % 1011,8 hPa 0,0 l/m 0 min 2 min 13 W/m 32,2 km/h (5 Bft) 95,74 %
31.01.2022 16:26 5,0 C 4,4 C 2,2 C 97 % 1011,8 hPa 0,0 l/m 0 min 2 min 11 W/m 25,7 km/h (4 Bft) 95,74 %
31.01.2022 16:28 5,0 C 4,4 C 2,2 C 97 % 1011,9 hPa 0,0 l/m 0 min 2 min 8 W/m 29,0 km/h (5 Bft) 95,74 %
31.01.2022 16:30 5,0 C 4,4 C 2,2 C 97 % 1011,9 hPa 0,0 l/m 0 min 2 min 7 W/m 32,2 km/h (5 Bft) 97,87 %
31.01.2022 16:32 5,0 C 4,4 C 2,2 C 97 % 1011,9 hPa 0,0 l/m 0 min 2 min 7 W/m 29,0 km/h (5 Bft) 97,87 %
31.01.2022 16:34 5,0 C 4,4 C 2,2 C 97 % 1012,0 hPa 0,0 l/m 0 min 2 min 7 W/m 25,7 km/h (4 Bft) 93,62 %
31.01.2022 16:36 5,0 C 4,4 C 2,2 C 97 % 1012,1 hPa 0,0 l/m 0 min 2 min 7 W/m 22,5 km/h (4 Bft) 97,87 %
31.01.2022 16:38 5,0 C 4,4 C 2,2 C 97 % 1012,2 hPa 0,0 l/m 0 min 2 min 7 W/m 19,3 km/h (3 Bft) 97,87 %
31.01.2022 16:40 5,0 C 4,4 C 2,2 C 97 % 1012,1 hPa 0,2 l/m 0 min 2 min 6 W/m 25,7 km/h (4 Bft) 97,83 %
31.01.2022 16:42 5,0 C 4,4 C 2,2 C 97 % 1012,2 hPa 0,0 l/m 0 min 2 min 6 W/m 22,5 km/h (4 Bft) 97,87 %
31.01.2022 16:44 4,9 C 4,4 C 2,2 C 97 % 1012,2 hPa 0,0 l/m 0 min 0 min 7 W/m 25,7 km/h (4 Bft) 97,87 %
31.01.2022 16:46 4,9 C 4,4 C 2,2 C 97 % 1012,2 hPa 0,0 l/m 0 min 2 min 6 W/m 25,7 km/h (4 Bft) 97,87 %
31.01.2022 16:48 4,9 C 4,4 C 2,2 C 97 % 1012,4 hPa 0,0 l/m 0 min 2 min 6 W/m 22,5 km/h (4 Bft) 97,87 %
31.01.2022 16:50 4,9 C 4,4 C 2,2 C 97 % 1012,3 hPa 0,0 l/m 0 min 0 min 6 W/m 22,5 km/h (4 Bft) 97,87 %
31.01.2022 16:52 4,9 C 4,4 C 2,2 C 97 % 1012,4 hPa 0,0 l/m 0 min 2 min 5 W/m 25,7 km/h (4 Bft) 95,65 %
31.01.2022 16:54 4,9 C 4,4 C 2,2 C 97 % 1012,5 hPa 0,0 l/m 0 min 0 min 5 W/m 25,7 km/h (4 Bft) 97,87 %
31.01.2022 16:56 4,9 C 4,4 C 2,2 C 97 % 1012,6 hPa 0,0 l/m 0 min 2 min 2 W/m 22,5 km/h (4 Bft) 97,87 %
31.01.2022 16:58 4,9 C 4,4 C 2,2 C 97 % 1012,5 hPa 0,0 l/m 0 min 0 min 0 W/m 22,5 km/h (4 Bft) 97,87 %
31.01.2022 17:00 4,9 C 4,4 C 2,2 C 97 % 1012,5 hPa 0,0 l/m 0 min 2 min 0 W/m 22,5 km/h (4 Bft) 97,87 %
31.01.2022 17:02 4,9 C 4,4 C 2,2 C 97 % 1012,5 hPa 0,0 l/m 0 min 2 min 0 W/m 22,5 km/h (4 Bft) 100,00 %
31.01.2022 17:04 4,9 C 4,4 C 2,2 C 97 % 1012,6 hPa 0,0 l/m 0 min 2 min 0 W/m 25,7 km/h (4 Bft) 100,00 %
31.01.2022 17:06 4,9 C 4,4 C 2,2 C 97 % 1012,7 hPa 0,0 l/m 0 min 2 min 0 W/m 29,0 km/h (5 Bft) 100,00 %
31.01.2022 17:08 4,9 C 4,4 C 2,2 C 97 % 1012,7 hPa 0,0 l/m 0 min 2 min 0 W/m 29,0 km/h (5 Bft) 100,00 %
31.01.2022 17:10 4,9 C 4,4 C 2,2 C 97 % 1012,7 hPa 0,0 l/m 0 min 2 min 0 W/m 25,7 km/h (4 Bft) 97,87 %
31.01.2022 17:12 4,9 C 4,4 C 2,2 C 97 % 1012,8 hPa 0,0 l/m 0 min 2 min 0 W/m 25,7 km/h (4 Bft) 100,00 %
31.01.2022 17:14 4,9 C 4,4 C 2,2 C 97 % 1012,8 hPa 0,0 l/m 0 min 2 min 0 W/m 29,0 km/h (5 Bft) 100,00 %
31.01.2022 17:16 4,9 C 4,4 C 2,2 C 97 % 1012,7 hPa 0,0 l/m 0 min 2 min 0 W/m 22,5 km/h (4 Bft) 100,00 %
31.01.2022 17:18 4,9 C 4,4 C 2,2 C 97 % 1012,9 hPa 0,0 l/m 0 min 2 min 0 W/m 25,7 km/h (4 Bft) 97,87 %
31.01.2022 17:20 4,9 C 4,4 C 2,2 C 97 % 1012,8 hPa 0,0 l/m 0 min 2 min 0 W/m 29,0 km/h (5 Bft) 100,00 %
31.01.2022 17:22 4,9 C 4,4 C 2,2 C 97 % 1012,8 hPa 0,0 l/m 0 min 2 min 0 W/m 32,2 km/h (5 Bft) 100,00 %
31.01.2022 17:24 4,8 C 4,4 C 2,2 C 97 % 1012,8 hPa 0,0 l/m 0 min 2 min 0 W/m 22,5 km/h (4 Bft) 100,00 %
31.01.2022 17:26 4,8 C 4,4 C 2,2 C 97 % 1012,9 hPa 0,0 l/m 0 min 2 min 0 W/m 41,8 km/h (6 Bft) 97,87 %
31.01.2022 17:28 4,8 C 4,4 C 2,2 C 97 % 1012,9 hPa 0,0 l/m 0 min 2 min 0 W/m 25,7 km/h (4 Bft) 97,83 %
31.01.2022 17:30 4,8 C 4,4 C 2,2 C 97 % 1013,0 hPa 0,0 l/m 0 min 2 min 0 W/m 35,4 km/h (5 Bft) 97,87 %
31.01.2022 17:32 4,8 C 4,4 C 2,2 C 97 % 1013,0 hPa 0,0 l/m 0 min 2 min 0 W/m 29,0 km/h (5 Bft) 95,74 %
31.01.2022 17:34 4,8 C 4,4 C 2,2 C 97 % 1013,0 hPa 0,0 l/m 0 min 2 min 0 W/m 22,5 km/h (4 Bft) 97,87 %
31.01.2022 17:36 4,8 C 4,4 C 2,2 C 97 % 1013,1 hPa 0,0 l/m 0 min 2 min 0 W/m 19,3 km/h (3 Bft) 97,87 %
31.01.2022 17:38 4,8 C 4,4 C 2,2 C 97 % 1013,1 hPa 0,2 l/m 0 min 2 min 0 W/m 32,2 km/h (5 Bft) 97,83 %
31.01.2022 17:40 4,8 C 4,4 C 2,2 C 97 % 1013,3 hPa 0,0 l/m 0 min 2 min 0 W/m 22,5 km/h (4 Bft) 95,74 %
31.01.2022 17:42 4,8 C 3,9 C 2,2 C 97 % 1013,3 hPa 0,0 l/m 0 min 2 min 0 W/m 25,7 km/h (4 Bft) 97,87 %
31.01.2022 17:44 4,8 C 4,4 C 2,2 C 97 % 1013,3 hPa 0,0 l/m 0 min 2 min 0 W/m 32,2 km/h (5 Bft) 97,87 %
31.01.2022 17:46 4,8 C 3,9 C 2,2 C 97 % 1013,4 hPa 0,0 l/m 0 min 2 min 0 W/m 25,7 km/h (4 Bft) 97,87 %
31.01.2022 17:48 4,8 C 3,9 C 2,2 C 97 % 1013,3 hPa 0,0 l/m 0 min 2 min 0 W/m 35,4 km/h (5 Bft) 97,87 %
31.01.2022 17:50 4,8 C 3,9 C 2,2 C 97 % 1013,5 hPa 0,0 l/m 0 min 2 min 0 W/m 29,0 km/h (5 Bft) 97,83 %
31.01.2022 17:52 4,8 C 3,9 C 2,2 C 97 % 1013,6 hPa 0,0 l/m 0 min 0 min 0 W/m 19,3 km/h (3 Bft) 97,87 %
31.01.2022 17:54 4,7 C 4,4 C 2,2 C 97 % 1013,5 hPa 0,2 l/m 0 min 0 min 0 W/m 48,3 km/h (6 Bft) 97,87 %
31.01.2022 17:56 4,7 C 4,4 C 2,2 C 97 % 1013,6 hPa 0,0 l/m 0 min 0 min 0 W/m 29,0 km/h (5 Bft) 95,74 %
31.01.2022 17:58 4,8 C 4,4 C 2,2 C 97 % 1013,7 hPa 0,0 l/m 0 min 0 min 0 W/m 29,0 km/h (5 Bft) 100,00 %
31.01.2022 18:00 4,8 C 4,4 C 2,2 C 97 % 1013,7 hPa 0,0 l/m 0 min 2 min 0 W/m 32,2 km/h (5 Bft) 100,00 %
31.01.2022 18:02 4,8 C 3,9 C 2,2 C 97 % 1013,8 hPa 0,0 l/m 0 min 2 min 0 W/m 16,1 km/h (3 Bft) 100,00 %
31.01.2022 18:04 4,8 C 3,9 C 2,2 C 97 % 1013,9 hPa 0,0 l/m 0 min 2 min 0 W/m 29,0 km/h (5 Bft) 100,00 %
31.01.2022 18:08 4,8 C 3,9 C 2,2 C 97 % 1014,0 hPa 0,0 l/m 0 min 4 min 0 W/m 38,6 km/h (5 Bft) 97,87 %
31.01.2022 18:10 4,8 C 3,9 C 2,2 C 97 % 1014,0 hPa 0,0 l/m 0 min 2 min 0 W/m 38,6 km/h (5 Bft) 97,87 %
31.01.2022 18:12 4,8 C 4,4 C 2,2 C 97 % 1014,0 hPa 0,0 l/m 0 min 2 min 0 W/m 29,0 km/h (5 Bft) 100,00 %
31.01.2022 18:14 4,8 C 4,4 C 2,2 C 97 % 1014,1 hPa 0,0 l/m 0 min 2 min 0 W/m 32,2 km/h (5 Bft) 100,00 %
31.01.2022 18:16 4,9 C 4,4 C 2,2 C 97 % 1014,1 hPa 0,0 l/m 0 min 2 min 0 W/m 29,0 km/h (5 Bft) 97,87 %
31.01.2022 18:18 4,9 C 4,4 C 2,2 C 97 % 1014,1 hPa 0,0 l/m 0 min 2 min 0 W/m 19,3 km/h (3 Bft) 100,00 %
31.01.2022 18:20 4,9 C 4,4 C 2,2 C 97 % 1014,1 hPa 0,0 l/m 0 min 2 min 0 W/m 32,2 km/h (5 Bft) 97,87 %
31.01.2022 18:22 4,9 C 4,4 C 2,2 C 97 % 1014,1 hPa 0,0 l/m 0 min 2 min 0 W/m 19,3 km/h (3 Bft) 97,87 %
31.01.2022 18:24 4,9 C 4,4 C 2,2 C 97 % 1014,3 hPa 0,0 l/m 0 min 2 min 0 W/m 19,3 km/h (3 Bft) 95,74 %
31.01.2022 18:26 4,9 C 4,4 C 2,2 C 97 % 1014,3 hPa 0,0 l/m 0 min 2 min 0 W/m 29,0 km/h (5 Bft) 97,83 %
31.01.2022 18:28 4,9 C 4,4 C 2,8 C 97 % 1014,4 hPa 0,0 l/m 0 min 2 min 0 W/m 25,7 km/h (4 Bft) 97,87 %
31.01.2022 18:30 4,9 C 4,4 C 2,8 C 97 % 1014,4 hPa 0,0 l/m 0 min 2 min 0 W/m 25,7 km/h (4 Bft) 97,87 %
31.01.2022 18:32 4,9 C 4,4 C 2,8 C 97 % 1014,6 hPa 0,0 l/m 0 min 2 min 0 W/m 22,5 km/h (4 Bft) 97,87 %
31.01.2022 18:34 5,0 C 4,4 C 2,8 C 97 % 1014,6 hPa 0,0 l/m 0 min 2 min 0 W/m 25,7 km/h (4 Bft) 97,87 %
31.01.2022 18:36 5,0 C 4,4 C 2,8 C 97 % 1014,6 hPa 0,0 l/m 0 min 2 min 0 W/m 32,2 km/h (5 Bft) 93,62 %
31.01.2022 18:38 5,0 C 4,4 C 2,8 C 97 % 1014,7 hPa 0,0 l/m 0 min 2 min 0 W/m 25,7 km/h (4 Bft) 97,83 %
31.01.2022 18:40 5,0 C 4,4 C 2,8 C 97 % 1014,7 hPa 0,0 l/m 0 min 2 min 0 W/m 25,7 km/h (4 Bft) 97,87 %
31.01.2022 18:42 5,0 C 4,4 C 2,8 C 97 % 1014,8 hPa 0,0 l/m 0 min 2 min 0 W/m 25,7 km/h (4 Bft) 97,87 %
31.01.2022 18:44 5,0 C 4,4 C 2,8 C 97 % 1014,9 hPa 0,0 l/m 0 min 2 min 0 W/m 41,8 km/h (6 Bft) 97,87 %
31.01.2022 18:46 5,0 C 4,4 C 2,8 C 97 % 1015,0 hPa 0,0 l/m 0 min 2 min 0 W/m 25,7 km/h (4 Bft) 97,87 %
31.01.2022 18:48 5,0 C 4,4 C 2,8 C 97 % 1015,0 hPa 0,0 l/m 0 min 2 min 0 W/m 29,0 km/h (5 Bft) 97,87 %
31.01.2022 18:50 5,0 C 4,4 C 2,8 C 97 % 1014,9 hPa 0,0 l/m 0 min 2 min 0 W/m 35,4 km/h (5 Bft) 97,83 %
31.01.2022 18:52 5,0 C 4,4 C 2,8 C 97 % 1015,0 hPa 0,0 l/m 0 min 2 min 0 W/m 35,4 km/h (5 Bft) 97,87 %
31.01.2022 18:54 5,1 C 4,4 C 2,8 C 97 % 1015,1 hPa 0,0 l/m 0 min 2 min 0 W/m 29,0 km/h (5 Bft) 95,74 %
31.01.2022 18:56 5,1 C 4,4 C 2,8 C 97 % 1015,2 hPa 0,0 l/m 0 min 2 min 0 W/m 32,2 km/h (5 Bft) 97,87 %
31.01.2022 18:58 5,1 C 4,4 C 2,8 C 97 % 1015,3 hPa 0,0 l/m 0 min 2 min 0 W/m 22,5 km/h (4 Bft) 95,74 %
31.01.2022 19:00 5,1 C 4,4 C 2,8 C 97 % 1015,4 hPa 0,0 l/m 0 min 2 min 0 W/m 25,7 km/h (4 Bft) 95,74 %
31.01.2022 19:02 5,1 C 4,4 C 2,8 C 97 % 1015,3 hPa 0,0 l/m 0 min 0 min 0 W/m 29,0 km/h (5 Bft) 100,00 %
31.01.2022 19:04 5,1 C 4,4 C 2,8 C 97 % 1015,2 hPa 0,0 l/m 0 min 2 min 0 W/m 32,2 km/h (5 Bft) 100,00 %
31.01.2022 19:06 5,1 C 4,4 C 2,8 C 97 % 1015,3 hPa 0,0 l/m 0 min 2 min 0 W/m 25,7 km/h (4 Bft) 97,87 %
31.01.2022 19:08 5,1 C 4,4 C 2,8 C 97 % 1015,3 hPa 0,0 l/m 0 min 2 min 0 W/m 41,8 km/h (6 Bft) 100,00 %
31.01.2022 19:10 5,1 C 4,4 C 2,8 C 96 % 1015,4 hPa 0,0 l/m 0 min 2 min 0 W/m 29,0 km/h (5 Bft) 100,00 %
31.01.2022 19:12 5,1 C 4,4 C 2,8 C 96 % 1015,5 hPa 0,0 l/m 0 min 2 min 0 W/m 29,0 km/h (5 Bft) 97,87 %
31.01.2022 19:14 5,1 C 4,4 C 2,8 C 96 % 1015,5 hPa 0,0 l/m 0 min 2 min 0 W/m 22,5 km/h (4 Bft) 97,83 %
31.01.2022 19:16 5,1 C 4,4 C 2,8 C 96 % 1015,6 hPa 0,0 l/m 0 min 2 min 0 W/m 38,6 km/h (5 Bft) 100,00 %
31.01.2022 19:18 5,1 C 4,4 C 2,8 C 96 % 1015,7 hPa 0,0 l/m 0 min 2 min 0 W/m 38,6 km/h (5 Bft) 97,87 %
31.01.2022 19:20 5,1 C 4,4 C 2,8 C 96 % 1015,8 hPa 0,0 l/m 0 min 2 min 0 W/m 32,2 km/h (5 Bft) 93,62 %
31.01.2022 19:22 5,1 C 4,4 C 2,8 C 96 % 1015,9 hPa 0,0 l/m 0 min 2 min 0 W/m 35,4 km/h (5 Bft) 93,62 %
31.01.2022 19:24 5,1 C 4,4 C 2,8 C 96 % 1015,9 hPa 0,0 l/m 0 min 2 min 0 W/m 38,6 km/h (5 Bft) 95,74 %
31.01.2022 19:26 5,1 C 4,4 C 2,8 C 96 % 1016,2 hPa 0,0 l/m 0 min 2 min 0 W/m 25,7 km/h (4 Bft) 95,65 %
31.01.2022 19:28 5,1 C 4,4 C 2,8 C 96 % 1016,2 hPa 0,2 l/m 0 min 2 min 0 W/m 32,2 km/h (5 Bft) 93,62 %
31.01.2022 19:30 5,1 C 4,4 C 2,2 C 96 % 1016,3 hPa 0,0 l/m 0 min 2 min 0 W/m 29,0 km/h (5 Bft) 95,74 %
31.01.2022 19:32 5,1 C 4,4 C 2,8 C 96 % 1016,3 hPa 0,0 l/m 0 min 2 min 0 W/m 32,2 km/h (5 Bft) 95,74 %
31.01.2022 19:34 5,1 C 4,4 C 2,8 C 96 % 1016,3 hPa 0,2 l/m 0 min 0 min 0 W/m 29,0 km/h (5 Bft) 95,74 %
31.01.2022 19:36 5,0 C 4,4 C 2,2 C 96 % 1016,3 hPa 0,0 l/m 0 min 0 min 0 W/m 25,7 km/h (4 Bft) 95,65 %
31.01.2022 19:38 5,0 C 4,4 C 2,2 C 96 % 1016,4 hPa 0,0 l/m 0 min 0 min 0 W/m 25,7 km/h (4 Bft) 95,74 %
31.01.2022 19:40 5,0 C 4,4 C 2,2 C 96 % 1016,5 hPa 0,0 l/m 0 min 0 min 0 W/m 22,5 km/h (4 Bft) 91,49 %
31.01.2022 19:42 5,0 C 4,4 C 2,2 C 96 % 1016,6 hPa 0,0 l/m 0 min 0 min 0 W/m 22,5 km/h (4 Bft) 95,74 %
31.01.2022 19:44 5,0 C 4,4 C 2,2 C 96 % 1016,5 hPa 0,0 l/m 0 min 2 min 0 W/m 25,7 km/h (4 Bft) 93,62 %
31.01.2022 19:46 4,9 C 4,4 C 2,2 C 96 % 1016,6 hPa 0,0 l/m 0 min 2 min 0 W/m 32,2 km/h (5 Bft) 95,74 %
31.01.2022 19:48 4,9 C 4,4 C 2,2 C 96 % 1016,7 hPa 0,0 l/m 0 min 2 min 0 W/m 22,5 km/h (4 Bft) 95,65 %
31.01.2022 19:50 4,9 C 4,4 C 2,2 C 96 % 1016,8 hPa 0,0 l/m 0 min 2 min 0 W/m 22,5 km/h (4 Bft) 97,87 %
31.01.2022 19:52 4,9 C 4,4 C 2,2 C 96 % 1016,8 hPa 0,0 l/m 0 min 2 min 0 W/m 19,3 km/h (3 Bft) 97,87 %
31.01.2022 19:54 4,9 C 4,4 C 2,2 C 96 % 1016,9 hPa 0,2 l/m 0 min 2 min 0 W/m 25,7 km/h (4 Bft) 95,74 %
31.01.2022 19:56 4,9 C 4,4 C 2,2 C 96 % 1016,9 hPa 0,0 l/m 0 min 0 min 0 W/m 25,7 km/h (4 Bft) 44,44 %
31.01.2022 19:58 4,9 C 4,4 C 2,2 C 96 % 1017,0 hPa 0,0 l/m 0 min 2 min 0 W/m 32,2 km/h (5 Bft) 97,87 %
31.01.2022 20:00 4,9 C 4,4 C 2,2 C 96 % 1017,0 hPa 0,0 l/m 0 min 0 min 0 W/m 32,2 km/h (5 Bft) 97,83 %
31.01.2022 20:02 4,9 C 4,4 C 2,2 C 96 % 1017,0 hPa 0,0 l/m 0 min 2 min 0 W/m 22,5 km/h (4 Bft) 95,74 %
31.01.2022 20:04 4,9 C 4,4 C 2,2 C 96 % 1017,1 hPa 0,0 l/m 0 min 0 min 0 W/m 25,7 km/h (4 Bft) 97,87 %
31.01.2022 20:06 4,8 C 4,4 C 2,2 C 96 % 1017,0 hPa 0,0 l/m 0 min 2 min 0 W/m 22,5 km/h (4 Bft) 97,87 %
31.01.2022 20:08 4,8 C 4,4 C 2,2 C 96 % 1017,1 hPa 0,0 l/m 0 min 2 min 0 W/m 32,2 km/h (5 Bft) 97,87 %
31.01.2022 20:10 4,8 C 4,4 C 2,2 C 96 % 1017,0 hPa 0,0 l/m 0 min 2 min 0 W/m 25,7 km/h (4 Bft) 97,87 %
31.01.2022 20:12 4,8 C 4,4 C 2,2 C 96 % 1017,0 hPa 0,0 l/m 0 min 2 min 0 W/m 38,6 km/h (5 Bft) 100,00 %
31.01.2022 20:14 4,8 C 4,4 C 2,2 C 96 % 1017,1 hPa 0,0 l/m 0 min 2 min 0 W/m 38,6 km/h (5 Bft) 100,00 %
31.01.2022 20:16 4,8 C 4,4 C 2,2 C 96 % 1017,2 hPa 0,0 l/m 0 min 2 min 0 W/m 22,5 km/h (4 Bft) 97,87 %
31.01.2022 20:18 4,8 C 4,4 C 2,2 C 96 % 1017,3 hPa 0,0 l/m 0 min 2 min 0 W/m 25,7 km/h (4 Bft) 100,00 %
31.01.2022 20:20 4,8 C 4,4 C 2,2 C 96 % 1017,3 hPa 0,0 l/m 0 min 2 min 0 W/m 29,0 km/h (5 Bft) 97,87 %
31.01.2022 20:22 4,8 C 4,4 C 2,2 C 96 % 1017,3 hPa 0,0 l/m 0 min 2 min 0 W/m 16,1 km/h (3 Bft) 100,00 %
31.01.2022 20:24 4,8 C 4,4 C 2,2 C 96 % 1017,3 hPa 0,0 l/m 0 min 0 min 0 W/m 25,7 km/h (4 Bft) 100,00 %
31.01.2022 20:26 4,9 C 4,4 C 2,2 C 96 % 1017,4 hPa 0,0 l/m 0 min 0 min 0 W/m 25,7 km/h (4 Bft) 100,00 %
31.01.2022 20:28 4,9 C 4,4 C 2,2 C 96 % 1017,5 hPa 0,0 l/m 0 min 0 min 0 W/m 32,2 km/h (5 Bft) 97,87 %
31.01.2022 20:30 4,9 C 4,4 C 2,2 C 96 % 1017,6 hPa 0,0 l/m 0 min 0 min 0 W/m 29,0 km/h (5 Bft) 100,00 %
31.01.2022 20:32 4,9 C 4,4 C 2,2 C 96 % 1017,6 hPa 0,0 l/m 0 min 0 min 0 W/m 25,7 km/h (4 Bft) 100,00 %
31.01.2022 20:34 4,9 C 4,4 C 2,2 C 96 % 1017,7 hPa 0,0 l/m 0 min 0 min 0 W/m 22,5 km/h (4 Bft) 97,87 %
31.01.2022 20:36 4,9 C 4,4 C 2,2 C 96 % 1017,6 hPa 0,0 l/m 0 min 0 min 0 W/m 22,5 km/h (4 Bft) 100,00 %
31.01.2022 20:38 4,9 C 4,4 C 2,2 C 95 % 1017,8 hPa 0,0 l/m 0 min 0 min 0 W/m 32,2 km/h (5 Bft) 100,00 %
31.01.2022 20:40 4,8 C 4,4 C 2,2 C 95 % 1017,9 hPa 0,0 l/m 0 min 0 min 0 W/m 25,7 km/h (4 Bft) 100,00 %
31.01.2022 20:42 4,8 C 4,4 C 2,2 C 95 % 1017,9 hPa 0,0 l/m 0 min 0 min 0 W/m 19,3 km/h (3 Bft) 97,87 %
31.01.2022 20:44 4,9 C 4,4 C 2,2 C 95 % 1017,9 hPa 0,0 l/m 0 min 0 min 0 W/m 35,4 km/h (5 Bft) 100,00 %
31.01.2022 20:46 4,9 C 4,4 C 2,2 C 95 % 1017,9 hPa 0,0 l/m 0 min 0 min 0 W/m 22,5 km/h (4 Bft) 97,87 %
31.01.2022 20:48 4,8 C 4,4 C 2,2 C 95 % 1017,9 hPa 0,0 l/m 0 min 0 min 0 W/m 25,7 km/h (4 Bft) 97,83 %
31.01.2022 20:50 4,8 C 4,4 C 2,2 C 95 % 1018,0 hPa 0,0 l/m 0 min 0 min 0 W/m 41,8 km/h (6 Bft) 100,00 %
31.01.2022 20:52 4,8 C 4,4 C 2,2 C 95 % 1017,9 hPa 0,0 l/m 0 min 0 min 0 W/m 32,2 km/h (5 Bft) 97,87 %
31.01.2022 20:54 4,8 C 4,4 C 2,2 C 95 % 1018,0 hPa 0,0 l/m 0 min 0 min 0 W/m 32,2 km/h (5 Bft) 97,87 %
31.01.2022 20:56 4,8 C 4,4 C 2,2 C 95 % 1018,1 hPa 0,0 l/m 0 min 0 min 0 W/m 19,3 km/h (3 Bft) 100,00 %
31.01.2022 20:58 4,8 C 4,4 C 2,2 C 95 % 1018,0 hPa 0,0 l/m 0 min 0 min 0 W/m 35,4 km/h (5 Bft) 97,87 %
31.01.2022 21:00 4,8 C 4,4 C 2,2 C 95 % 1018,1 hPa 0,0 l/m 0 min 0 min 0 W/m 29,0 km/h (5 Bft) 97,83 %
31.01.2022 21:02 4,8 C 4,4 C 2,2 C 95 % 1018,2 hPa 0,0 l/m 0 min 0 min 0 W/m 25,7 km/h (4 Bft) 97,87 %
31.01.2022 21:04 4,8 C 4,4 C 2,2 C 94 % 1018,1 hPa 0,0 l/m 0 min 0 min 0 W/m 48,3 km/h (6 Bft) 95,74 %
31.01.2022 21:06 4,8 C 4,4 C 2,2 C 94 % 1018,2 hPa 0,0 l/m 0 min 0 min 0 W/m 25,7 km/h (4 Bft) 97,87 %
31.01.2022 21:10 4,8 C 4,4 C 2,2 C 94 % 1018,4 hPa 0,0 l/m 0 min 0 min 0 W/m 29,0 km/h (5 Bft) 72,81 %
31.01.2022 21:16 4,8 C 4,4 C 2,2 C 94 % 1018,5 hPa 0,0 l/m 0 min 0 min 0 W/m 19,3 km/h (3 Bft) 100,00 %
31.01.2022 21:18 4,8 C 4,4 C 2,2 C 94 % 1018,6 hPa 0,0 l/m 0 min 0 min 0 W/m 25,7 km/h (4 Bft) 97,87 %
31.01.2022 21:20 4,8 C 4,4 C 2,2 C 94 % 1018,7 hPa 0,0 l/m 0 min 0 min 0 W/m 32,2 km/h (5 Bft) 95,74 %
31.01.2022 21:22 4,8 C 4,4 C 2,2 C 94 % 1018,7 hPa 0,0 l/m 0 min 0 min 0 W/m 25,7 km/h (4 Bft) 95,65 %
31.01.2022 21:24 4,8 C 4,4 C 2,2 C 94 % 1018,9 hPa 0,0 l/m 0 min 0 min 0 W/m 32,2 km/h (5 Bft) 93,62 %
31.01.2022 21:26 4,8 C 4,4 C 2,2 C 94 % 1018,8 hPa 0,0 l/m 0 min 0 min 0 W/m 32,2 km/h (5 Bft) 95,74 %
31.01.2022 21:28 4,8 C 4,4 C 1,7 C 93 % 1018,9 hPa 0,0 l/m 0 min 0 min 0 W/m 32,2 km/h (5 Bft) 95,74 %
31.01.2022 21:30 4,8 C 4,4 C 1,7 C 93 % 1018,9 hPa 0,0 l/m 0 min 0 min 0 W/m 29,0 km/h (5 Bft) 97,87 %
31.01.2022 21:32 4,8 C 4,4 C 1,7 C 93 % 1018,9 hPa 0,0 l/m 0 min 0 min 0 W/m 19,3 km/h (3 Bft) 95,74 %
31.01.2022 21:34 4,7 C 3,9 C 1,7 C 93 % 1018,9 hPa 0,0 l/m 0 min 0 min 0 W/m 25,7 km/h (4 Bft) 97,87 %
31.01.2022 21:36 4,7 C 3,9 C 1,7 C 93 % 1018,8 hPa 0,0 l/m 0 min 0 min 0 W/m 25,7 km/h (4 Bft) 97,83 %
31.01.2022 21:38 4,7 C 3,9 C 1,7 C 93 % 1018,8 hPa 0,0 l/m 0 min 0 min 0 W/m 22,5 km/h (4 Bft) 97,87 %
31.01.2022 21:40 4,7 C 3,9 C 1,7 C 93 % 1018,8 hPa 0,0 l/m 0 min 0 min 0 W/m 32,2 km/h (5 Bft) 100,00 %
31.01.2022 21:42 4,7 C 3,9 C 1,7 C 93 % 1019,0 hPa 0,0 l/m 0 min 0 min 0 W/m 38,6 km/h (5 Bft) 97,87 %
31.01.2022 21:44 4,7 C 3,9 C 1,7 C 93 % 1019,1 hPa 0,0 l/m 0 min 2 min 0 W/m 32,2 km/h (5 Bft) 100,00 %
31.01.2022 21:46 4,7 C 3,9 C 1,7 C 93 % 1019,1 hPa 0,0 l/m 0 min 0 min 0 W/m 29,0 km/h (5 Bft) 100,00 %
31.01.2022 21:48 4,6 C 3,9 C 1,7 C 93 % 1019,4 hPa 0,0 l/m 0 min 2 min 0 W/m 35,4 km/h (5 Bft) 100,00 %
31.01.2022 21:50 4,6 C 3,9 C 1,7 C 93 % 1019,3 hPa 0,0 l/m 0 min 0 min 0 W/m 32,2 km/h (5 Bft) 100,00 %
31.01.2022 21:52 4,6 C 3,9 C 1,7 C 93 % 1019,3 hPa 0,0 l/m 0 min 0 min 0 W/m 35,4 km/h (5 Bft) 100,00 %
31.01.2022 21:54 4,6 C 3,9 C 1,7 C 93 % 1019,4 hPa 0,0 l/m 0 min 0 min 0 W/m 32,2 km/h (5 Bft) 95,74 %
31.01.2022 21:56 4,6 C 3,9 C 1,7 C 93 % 1019,3 hPa 0,0 l/m 0 min 0 min 0 W/m 32,2 km/h (5 Bft) 100,00 %
31.01.2022 21:58 4,6 C 3,9 C 1,7 C 93 % 1019,4 hPa 0,0 l/m 0 min 0 min 0 W/m 25,7 km/h (4 Bft) 100,00 %
31.01.2022 22:00 4,5 C 3,9 C 1,7 C 93 % 1019,4 hPa 0,0 l/m 0 min 0 min 0 W/m 25,7 km/h (4 Bft) 100,00 %
31.01.2022 22:02 4,5 C 3,9 C 1,7 C 92 % 1019,5 hPa 0,0 l/m 0 min 0 min 0 W/m 38,6 km/h (5 Bft) 100,00 %
31.01.2022 22:04 4,5 C 3,9 C 1,7 C 92 % 1019,6 hPa 0,0 l/m 0 min 0 min 0 W/m 32,2 km/h (5 Bft) 100,00 %
31.01.2022 22:06 4,5 C 3,9 C 1,7 C 92 % 1019,5 hPa 0,0 l/m 0 min 0 min 0 W/m 29,0 km/h (5 Bft) 100,00 %
31.01.2022 22:08 4,4 C 3,9 C 1,7 C 92 % 1019,6 hPa 0,0 l/m 0 min 0 min 0 W/m 29,0 km/h (5 Bft) 97,87 %
31.01.2022 22:10 4,4 C 3,9 C 1,7 C 92 % 1019,7 hPa 0,0 l/m 0 min 0 min 0 W/m 22,5 km/h (4 Bft) 97,83 %
31.01.2022 22:12 4,4 C 3,9 C 1,7 C 92 % 1019,7 hPa 0,0 l/m 0 min 0 min 0 W/m 25,7 km/h (4 Bft) 97,87 %
31.01.2022 22:14 4,4 C 3,9 C 1,7 C 92 % 1019,7 hPa 0,0 l/m 0 min 0 min 0 W/m 19,3 km/h (3 Bft) 100,00 %
31.01.2022 22:16 4,4 C 3,9 C 1,7 C 92 % 1019,7 hPa 0,0 l/m 0 min 0 min 0 W/m 22,5 km/h (4 Bft) 100,00 %
31.01.2022 22:18 4,4 C 3,9 C 1,7 C 92 % 1019,7 hPa 0,0 l/m 0 min 0 min 0 W/m 19,3 km/h (3 Bft) 100,00 %
31.01.2022 22:20 4,4 C 3,9 C 1,7 C 92 % 1019,6 hPa 0,0 l/m 0 min 0 min 0 W/m 25,7 km/h (4 Bft) 100,00 %
31.01.2022 22:22 4,4 C 3,9 C 1,7 C 92 % 1019,7 hPa 0,0 l/m 0 min 0 min 0 W/m 29,0 km/h (5 Bft) 100,00 %
31.01.2022 22:24 4,4 C 3,9 C 1,7 C 92 % 1019,5 hPa 0,0 l/m 0 min 0 min 0 W/m 16,1 km/h (3 Bft) 97,87 %
31.01.2022 22:26 4,4 C 3,9 C 1,7 C 92 % 1019,6 hPa 0,0 l/m 0 min 0 min 0 W/m 19,3 km/h (3 Bft) 97,87 %
31.01.2022 22:28 4,4 C 3,9 C 1,7 C 92 % 1019,6 hPa 0,0 l/m 0 min 0 min 0 W/m 22,5 km/h (4 Bft) 100,00 %
31.01.2022 22:30 4,4 C 3,9 C 1,7 C 92 % 1019,6 hPa 0,0 l/m 0 min 0 min 0 W/m 16,1 km/h (3 Bft) 100,00 %
31.01.2022 22:32 4,4 C 3,9 C 1,7 C 92 % 1019,7 hPa 0,0 l/m 0 min 0 min 0 W/m 25,7 km/h (4 Bft) 100,00 %
31.01.2022 22:34 4,4 C 3,9 C 1,7 C 92 % 1019,7 hPa 0,0 l/m 0 min 0 min 0 W/m 12,9 km/h (3 Bft) 100,00 %
31.01.2022 22:36 4,4 C 3,9 C 1,7 C 92 % 1019,6 hPa 0,0 l/m 0 min 0 min 0 W/m 16,1 km/h (3 Bft) 100,00 %
31.01.2022 22:38 4,4 C 3,9 C 1,7 C 92 % 1019,6 hPa 0,0 l/m 0 min 0 min 0 W/m 12,9 km/h (3 Bft) 100,00 %
31.01.2022 22:40 4,3 C 3,9 C 1,7 C 92 % 1019,6 hPa 0,0 l/m 0 min 0 min 0 W/m 16,1 km/h (3 Bft) 100,00 %
31.01.2022 22:42 4,4 C 3,9 C 1,1 C 92 % 1019,7 hPa 0,0 l/m 0 min 0 min 0 W/m 25,7 km/h (4 Bft) 97,96 %
31.01.2022 22:44 4,4 C 3,9 C 1,1 C 92 % 1019,7 hPa 0,0 l/m 0 min 0 min 0 W/m 16,1 km/h (3 Bft) 98,00 %
31.01.2022 22:46 4,4 C 3,9 C 1,1 C 92 % 1019,7 hPa 0,0 l/m 0 min 0 min 0 W/m 29,0 km/h (5 Bft) 97,83 %
31.01.2022 22:48 4,4 C 3,9 C 1,1 C 92 % 1019,8 hPa 0,0 l/m 0 min 0 min 0 W/m 16,1 km/h (3 Bft) 97,87 %
31.01.2022 22:50 4,4 C 3,9 C 1,1 C 91 % 1019,8 hPa 0,0 l/m 0 min 0 min 0 W/m 25,7 km/h (4 Bft) 97,87 %
31.01.2022 22:52 4,4 C 3,9 C 1,1 C 91 % 1019,9 hPa 0,0 l/m 0 min 0 min 0 W/m 19,3 km/h (3 Bft) 97,87 %
31.01.2022 22:54 4,4 C 3,9 C 1,1 C 91 % 1020,0 hPa 0,0 l/m 0 min 0 min 0 W/m 16,1 km/h (3 Bft) 95,74 %
31.01.2022 22:56 4,4 C 3,9 C 1,1 C 91 % 1020,0 hPa 0,0 l/m 0 min 0 min 0 W/m 19,3 km/h (3 Bft) 95,74 %
31.01.2022 22:58 4,4 C 3,9 C 1,1 C 91 % 1019,9 hPa 0,0 l/m 0 min 0 min 0 W/m 16,1 km/h (3 Bft) 95,65 %
31.01.2022 23:00 4,4 C 3,9 C 1,1 C 91 % 1019,9 hPa 0,0 l/m 0 min 0 min 0 W/m 22,5 km/h (4 Bft) 93,62 %
31.01.2022 23:02 4,4 C 3,9 C 1,1 C 90 % 1019,9 hPa 0,0 l/m 0 min 0 min 0 W/m 19,3 km/h (3 Bft) 95,65 %
31.01.2022 23:04 4,4 C 3,9 C 1,1 C 90 % 1020,0 hPa 0,0 l/m 0 min 0 min 0 W/m 35,4 km/h (5 Bft) 93,62 %
31.01.2022 23:06 4,4 C 3,9 C 1,1 C 90 % 1020,0 hPa 0,0 l/m 0 min 0 min 0 W/m 29,0 km/h (5 Bft) 95,74 %
31.01.2022 23:08 4,4 C 3,9 C 1,1 C 89 % 1020,1 hPa 0,0 l/m 0 min 0 min 0 W/m 22,5 km/h (4 Bft) 95,65 %
31.01.2022 23:10 4,4 C 3,9 C 1,1 C 89 % 1020,1 hPa 0,0 l/m 0 min 0 min 0 W/m 25,7 km/h (4 Bft) 93,62 %
31.01.2022 23:12 4,4 C 3,9 C 1,1 C 89 % 1020,0 hPa 0,0 l/m 0 min 0 min 0 W/m 29,0 km/h (5 Bft) 91,49 %
31.01.2022 23:14 4,3 C 3,9 C 1,1 C 89 % 1020,0 hPa 0,0 l/m 0 min 0 min 0 W/m 32,2 km/h (5 Bft) 91,49 %
31.01.2022 23:16 4,3 C 3,3 C 0,6 C 88 % 1020,1 hPa 0,0 l/m 0 min 0 min 0 W/m 32,2 km/h (5 Bft) 93,62 %
31.01.2022 23:18 4,3 C 3,3 C 0,6 C 88 % 1020,2 hPa 0,0 l/m 0 min 0 min 0 W/m 29,0 km/h (5 Bft) 93,62 %
31.01.2022 23:20 4,2 C 3,3 C 0,6 C 88 % 1020,2 hPa 0,0 l/m 0 min 0 min 0 W/m 29,0 km/h (5 Bft) 91,43 %
31.01.2022 23:22 4,2 C 3,3 C 0,6 C 87 % 1020,3 hPa 0,0 l/m 0 min 0 min 0 W/m 22,5 km/h (4 Bft) 94,34 %
31.01.2022 23:24 4,2 C 3,3 C 0,6 C 87 % 1020,3 hPa 0,0 l/m 0 min 0 min 0 W/m 19,3 km/h (3 Bft) 95,74 %
31.01.2022 23:26 4,1 C 3,3 C 0,6 C 87 % 1020,4 hPa 0,0 l/m 0 min 0 min 0 W/m 22,5 km/h (4 Bft) 95,74 %
31.01.2022 23:28 4,1 C 3,3 C 0,6 C 87 % 1020,4 hPa 0,0 l/m 0 min 0 min 0 W/m 22,5 km/h (4 Bft) 93,62 %
31.01.2022 23:30 4,1 C 3,3 C 0,6 C 87 % 1020,5 hPa 0,0 l/m 0 min 0 min 0 W/m 25,7 km/h (4 Bft) 93,62 %
31.01.2022 23:32 4,0 C 3,3 C 0,6 C 87 % 1020,4 hPa 0,0 l/m 0 min 0 min 0 W/m 22,5 km/h (4 Bft) 93,62 %
31.01.2022 23:34 4,0 C 3,3 C 0,6 C 87 % 1020,5 hPa 0,0 l/m 0 min 0 min 0 W/m 25,7 km/h (4 Bft) 95,74 %
31.01.2022 23:36 3,9 C 3,3 C 0,6 C 86 % 1020,5 hPa 0,0 l/m 0 min 0 min 0 W/m 19,3 km/h (3 Bft) 95,74 %
31.01.2022 23:38 3,9 C 3,3 C 0,0 C 86 % 1020,4 hPa 0,0 l/m 0 min 0 min 0 W/m 25,7 km/h (4 Bft) 97,87 %
31.01.2022 23:40 3,9 C 3,3 C 0,0 C 86 % 1020,4 hPa 0,0 l/m 0 min 0 min 0 W/m 16,1 km/h (3 Bft) 97,87 %
31.01.2022 23:42 3,9 C 3,3 C 0,0 C 86 % 1020,3 hPa 0,0 l/m 0 min 0 min 0 W/m 22,5 km/h (4 Bft) 97,87 %
31.01.2022 23:44 3,8 C 2,8 C 0,0 C 86 % 1020,3 hPa 0,0 l/m 0 min 0 min 0 W/m 19,3 km/h (3 Bft) 97,87 %
31.01.2022 23:46 3,8 C 2,8 C 0,0 C 86 % 1020,3 hPa 0,0 l/m 0 min 0 min 0 W/m 12,9 km/h (3 Bft) 97,87 %
31.01.2022 23:48 3,8 C 2,8 C 0,0 C 86 % 1020,4 hPa 0,0 l/m 0 min 0 min 0 W/m 19,3 km/h (3 Bft) 97,87 %
31.01.2022 23:50 3,7 C 2,8 C 0,0 C 86 % 1020,3 hPa 0,0 l/m 0 min 0 min 0 W/m 16,1 km/h (3 Bft) 95,74 %
31.01.2022 23:52 3,7 C 2,8 C 0,0 C 86 % 1020,3 hPa 0,0 l/m 0 min 0 min 0 W/m 16,1 km/h (3 Bft) 97,87 %
31.01.2022 23:54 3,7 C 2,8 C 0,0 C 86 % 1020,3 hPa 0,0 l/m 0 min 0 min 0 W/m 19,3 km/h (3 Bft) 97,83 %
31.01.2022 23:56 3,6 C 2,8 C 0,0 C 86 % 1020,1 hPa 0,0 l/m 0 min 0 min 0 W/m 12,9 km/h (3 Bft) 100,00 %
31.01.2022 23:58 3,6 C 2,8 C 0,0 C 86 % 1020,2 hPa 0,0 l/m 0 min 0 min 0 W/m 19,3 km/h (3 Bft) 100,00 %
_ Min-Zeit 23:56 03:50 03:18 00:22 10:30 - - - - 00:00 14:34
Minimum _ 3,6 C 2,8 C 0,0 C 80 % 1007,1 hPa - - - - 12,9 km/h (3 Bft) 44,44 %
_ Max-Zeit 07:10 06:40 18:28 14:56 00:00 07:56 00:00 04:07 13:34 13:02 00:00
Maximum _ 5,6 C 5,0 C 2,8 C 97 % 1020,5 hPa 0,4 l/m 0 min 5 min 90 W/m 57,9 km/h
O-SO (7 Bft)
100,00 %
Durchschnitt _ 4,7 C 4,1 C 1,4 C 93 % 1012,3 hPa #9,6 l/m #0 min. #14:48 h 36 W/m 26,7 km/h (4 Bft) 97,08 %
© 2022 W. Hausmann